Observation data for Endee on 11/15/2019      Previous  Date       Current Mesonet Observations  Soil Data  Daily Summary Page  Observations in Plain Language
KEN1 150600Z 16005KT 01/M03 A304 RMK A01 T00051026  RH  080%=      5-min Rain = 0
KEN1 150601Z 16005KT 01/M03 A304 RMK A01 T00051026  RH  080%=      5-min Rain = 0
KEN1 150602Z 16005KT 01/M03 A304 RMK A01 T00051026  RH  080%=      5-min Rain = 0
KEN1 150603Z 16005KT 01/M03 A304 RMK A01 T00051026  RH  080%=      5-min Rain = 0
KEN1 150604Z 16005KT 01/M03 A304 RMK A01 T00051026  RH  080%=      5-min Rain = 0
KEN1 150605Z 16006KT 00/M03 A304 RMK A01 T00041026  RH  080%=      5-min Rain = 0
KEN1 150606Z 16006KT 00/M03 A304 RMK A01 T00041027  RH  080%=      5-min Rain = 0
KEN1 150607Z 16006KT 00/M03 A304 RMK A01 T00031027  RH  080%=      5-min Rain = 0
KEN1 150608Z 16007KT 00/M03 A304 RMK A01 T00031027  RH  080%=      5-min Rain = 0
KEN1 150609Z 16007KT 00/M03 A304 RMK A01 T00031027  RH  081%=      5-min Rain = 0
KEN1 150610Z 16007KT 00/M03 A304 RMK A01 T00021027  RH  081%=      5-min Rain = 0
KEN1 150611Z 16007KT 00/M03 A304 RMK A01 T00021027  RH  081%=      5-min Rain = 0
KEN1 150612Z 16007KT 00/M03 A304 RMK A01 T00021027  RH  081%=      5-min Rain = 0
KEN1 150613Z 16007KT 00/M03 A304 RMK A01 T00031026  RH  081%=      5-min Rain = 0
KEN1 150614Z 16008KT 00/M03 A304 RMK A01 T00041026  RH  080%=      5-min Rain = 0
KEN1 150615Z 16007KT 01/M03 A304 RMK A01 T00071025  RH  079%=      5-min Rain = 0
KEN1 150616Z 16008KT 01/M03 A304 RMK A01 T00071026  RH  079%=      5-min Rain = 0
KEN1 150617Z 16008KT 01/M03 A304 RMK A01 T00081026  RH  078%=      5-min Rain = 0
KEN1 150618Z 17008KT 01/M03 A304 RMK A01 T00081026  RH  078%=      5-min Rain = 0
KEN1 150619Z 17008KT 01/M03 A304 RMK A01 T00091026  RH  078%=      5-min Rain = 0
KEN1 150620Z 17008KT 01/M03 A304 RMK A01 T00101026  RH  077%=      5-min Rain = 0
KEN1 150621Z 17008KT 01/M03 A304 RMK A01 T00101026  RH  077%=      5-min Rain = 0
KEN1 150622Z 17008KT 01/M03 A304 RMK A01 T00101026  RH  077%=      5-min Rain = 0
KEN1 150623Z 17008KT 01/M03 A304 RMK A01 T00101026  RH  076%=      5-min Rain = 0
KEN1 150624Z 16008KT 01/M03 A304 RMK A01 T00111026  RH  076%=      5-min Rain = 0
KEN1 150625Z 16008KT 01/M03 A304 RMK A01 T00101027  RH  076%=      5-min Rain = 0
KEN1 150626Z 16007KT 01/M03 A3039 RMK A01 T00101027  RH  076%=      5-min Rain = 0
KEN1 150627Z 16008KT 01/M03 A3039 RMK A01 T00101027  RH  076%=      5-min Rain = 0
KEN1 150628Z 17009KT 01/M03 A3039 RMK A01 T00111026  RH  076%=      5-min Rain = 0
KEN1 150629Z 17009KT 01/M03 A3039 RMK A01 T00121026  RH  076%=      5-min Rain = 0
KEN1 150630Z 17009KT 02/M03 A3039 RMK A01 T00151025  RH  075%=      5-min Rain = 0
KEN1 150631Z 17009KT 02/M03 A3039 RMK A01 T00161025  RH  074%=      5-min Rain = 0
KEN1 150632Z 17009KT 02/M03 A3039 RMK A01 T00171025  RH  074%=      5-min Rain = 0
KEN1 150633Z 17008KT 02/M03 A3039 RMK A01 T00171025  RH  074%=      5-min Rain = 0
KEN1 150634Z 17006KT 02/M03 A3039 RMK A01 T00171026  RH  073%=      5-min Rain = 0
KEN1 150635Z 17006KT 02/M03 A3039 RMK A01 T00151027  RH  074%=      5-min Rain = 0
KEN1 150636Z 17006KT 01/M03 A3039 RMK A01 T00121029  RH  074%=      5-min Rain = 0
KEN1 150637Z 17007KT 01/M03 A3039 RMK A01 T00091030  RH  075%=      5-min Rain = 0
KEN1 150638Z 17008KT 01/M03 A3039 RMK A01 T00071030  RH  077%=      5-min Rain = 0
KEN1 150639Z 17008KT 01/M03 A3039 RMK A01 T00061030  RH  077%=      5-min Rain = 0
KEN1 150640Z 17008KT 00/M03 A3039 RMK A01 T00041030  RH  078%=      5-min Rain = 0
KEN1 150641Z 17008KT 00/M03 A3039 RMK A01 T00031031  RH  078%=      5-min Rain = 0
KEN1 150642Z 17008KT 00/M03 A3039 RMK A01 T00021031  RH  078%=      5-min Rain = 0
KEN1 150643Z 17007KT 00/M03 A3039 RMK A01 T00021031  RH  079%=      5-min Rain = 0
KEN1 150644Z 17007KT 00/M03 A3039 RMK A01 T00011031  RH  079%=      5-min Rain = 0
KEN1 150645Z 17007KT 00/M03 A3039 RMK A01 T00011031  RH  079%=      5-min Rain = 0
KEN1 150646Z 17007KT 00/M03 A3039 RMK A01 T00011031  RH  079%=      5-min Rain = 0
KEN1 150647Z 17007KT 00/M03 A3039 RMK A01 T00021030  RH  079%=      5-min Rain = 0
KEN1 150648Z 16007KT 00/M03 A3039 RMK A01 T00021031  RH  079%=      5-min Rain = 0
KEN1 150649Z 16007KT 00/M03 A3039 RMK A01 T00021030  RH  079%=      5-min Rain = 0
KEN1 150650Z 16007KT 00/M03 A3039 RMK A01 T00021030  RH  079%=      5-min Rain = 0
KEN1 150651Z 16007KT 00/M03 A3039 RMK A01 T00031030  RH  079%=      5-min Rain = 0
KEN1 150652Z 16007KT 00/M03 A3039 RMK A01 T00021030  RH  079%=      5-min Rain = 0
KEN1 150653Z 16007KT 00/M03 A3039 RMK A01 T00021031  RH  079%=      5-min Rain = 0
KEN1 150654Z 16007KT 00/M03 A3039 RMK A01 T00021031  RH  079%=      5-min Rain = 0
KEN1 150655Z 16007KT 00/M03 A3039 RMK A01 T00011031  RH  079%=      5-min Rain = 0
KEN1 150656Z 16007KT 00/03 A3039 RMK A01 T00-00-32  RH  079%=      5-min Rain = 0
KEN1 150657Z 16007KT M00/M03 A3039 RMK A01 T10011032  RH  080%=      5-min Rain = 0
KEN1 150658Z 16007KT M00/M03 A3039 RMK A01 T10011032  RH  080%=      5-min Rain = 0
KEN1 150659Z 16008KT M00/M03 A3039 RMK A01 T10021032  RH  080%=      5-min Rain = 0
KEN1 150700Z 17008KT M00/M03 A3039 RMK A01 T10031032  RH  081%=      5-min Rain = 0
KEN1 150701Z 17008KT M00/M03 A3039 RMK A01 T10031031  RH  081%=      5-min Rain = 0
KEN1 150702Z 17008KT M00/M03 A3039 RMK A01 T10031031  RH  081%=      5-min Rain = 0
KEN1 150703Z 17008KT M00/M03 A3039 RMK A01 T10021031  RH  081%=      5-min Rain = 0
KEN1 150704Z 17008KT M00/M03 A3039 RMK A01 T10021030  RH  081%=      5-min Rain = 0
KEN1 150705Z 17008KT M00/M03 A3039 RMK A01 T10011029  RH  081%=      5-min Rain = 0
KEN1 150706Z 17007KT 00/03 A3039 RMK A01 T00-00-28  RH  081%=      5-min Rain = 0
KEN1 150707Z 17007KT 00/03 A3039 RMK A01 T00-00-29  RH  081%=      5-min Rain = 0
KEN1 150708Z 16007KT 00/03 A3038 RMK A01 T00-00-29  RH  081%=      5-min Rain = 0
KEN1 150709Z 16007KT 00/03 A3038 RMK A01 T00000-29  RH  081%=      5-min Rain = 0
KEN1 150710Z 16007KT 00/03 A3038 RMK A01 T00-00-30  RH  080%=      5-min Rain = 0
KEN1 150711Z 16007KT 00/03 A3038 RMK A01 T00-00-30  RH  080%=      5-min Rain = 0
KEN1 150712Z 16007KT 00/03 A3038 RMK A01 T00000-31  RH  080%=      5-min Rain = 0
KEN1 150713Z 17007KT 00/03 A3038 RMK A01 T00-00-31  RH  080%=      5-min Rain = 0
KEN1 150714Z 17007KT M00/M03 A3038 RMK A01 T10011031  RH  080%=      5-min Rain = 0
KEN1 150715Z 17006KT 00/03 A3038 RMK A01 T00-00-30  RH  080%=      5-min Rain = 0
KEN1 150716Z 16007KT 00/03 A3038 RMK A01 T00000-30  RH  080%=      5-min Rain = 0
KEN1 150717Z 16008KT 00/03 A3038 RMK A01 T00-00-30  RH  080%=      5-min Rain = 0
KEN1 150718Z 16008KT 00/03 A3038 RMK A01 T00-00-30  RH  081%=      5-min Rain = 0
KEN1 150719Z 16008KT 00/03 A3038 RMK A01 T00-00-30  RH  081%=      5-min Rain = 0
KEN1 150720Z 16008KT 00/03 A3038 RMK A01 T00-00-29  RH  081%=      5-min Rain = 0
KEN1 150721Z 16008KT 00/M03 A3038 RMK A01 T00011028  RH  081%=      5-min Rain = 0
KEN1 150722Z 16008KT 00/M03 A3038 RMK A01 T00021027  RH  081%=      5-min Rain = 0
KEN1 150723Z 16008KT 00/M03 A3038 RMK A01 T00031027  RH  080%=      5-min Rain = 0
KEN1 150724Z 16008KT 00/M03 A3038 RMK A01 T00041026  RH  080%=      5-min Rain = 0
KEN1 150725Z 16009KT 01/M03 A3038 RMK A01 T00061025  RH  080%=      5-min Rain = 0
KEN1 150726Z 16009KT 01/M03 A3038 RMK A01 T00071025  RH  079%=      5-min Rain = 0
KEN1 150727Z 16009KT 01/M03 A3038 RMK A01 T00081025  RH  078%=      5-min Rain = 0
KEN1 150728Z 17009KT 01/M03 A3038 RMK A01 T00081026  RH  078%=      5-min Rain = 0
KEN1 150729Z 17008KT 01/M03 A3038 RMK A01 T00081025  RH  078%=      5-min Rain = 0
KEN1 150730Z 17008KT 01/M03 A3038 RMK A01 T00081025  RH  078%=      5-min Rain = 0
KEN1 150731Z 17008KT 01/M03 A3038 RMK A01 T00091025  RH  078%=      5-min Rain = 0
KEN1 150732Z 17008KT 01/M02 A3038 RMK A01 T00111024  RH  078%=      5-min Rain = 0
KEN1 150733Z 17008KT 01/M02 A3038 RMK A01 T00121024  RH  077%=      5-min Rain = 0
KEN1 150734Z 17008KT 01/M02 A3038 RMK A01 T00141023  RH  076%=      5-min Rain = 0
KEN1 150735Z 18007KT 02/M02 A3038 RMK A01 T00151024  RH  076%=      5-min Rain = 0
KEN1 150736Z 18008KT 02/M02 A3038 RMK A01 T00151024  RH  075%=      5-min Rain = 0
KEN1 150737Z 18008KT 02/M02 A3038 RMK A01 T00151024  RH  075%=      5-min Rain = 0
KEN1 150738Z 18008KT 02/M02 A3038 RMK A01 T00151024  RH  075%=      5-min Rain = 0
KEN1 150739Z 18008KT 02/M02 A3038 RMK A01 T00161024  RH  075%=      5-min Rain = 0
KEN1 150740Z 18008KT 02/M02 A3038 RMK A01 T00161024  RH  074%=      5-min Rain = 0
KEN1 150741Z 18008KT 02/M02 A3038 RMK A01 T00171024  RH  074%=      5-min Rain = 0
KEN1 150742Z 18008KT 02/M02 A3038 RMK A01 T00171023  RH  074%=      5-min Rain = 0
KEN1 150743Z 19007KT 02/M02 A3038 RMK A01 T00171023  RH  074%=      5-min Rain = 0
KEN1 150744Z 22004KT 02/M03 A3038 RMK A01 T00161025  RH  074%=      5-min Rain = 0
KEN1 150745Z 20005KT 01/M03 A3038 RMK A01 T00131027  RH  075%=      5-min Rain = 0
KEN1 150746Z 21005KT 01/M03 A3038 RMK A01 T00101028  RH  076%=      5-min Rain = 0
KEN1 150747Z 21005KT 01/M03 A3038 RMK A01 T00081029  RH  077%=      5-min Rain = 0
KEN1 150748Z 21004KT 01/M03 A3038 RMK A01 T00071028  RH  078%=      5-min Rain = 0
KEN1 150749Z 21004KT 01/M03 A3038 RMK A01 T00061027  RH  078%=      5-min Rain = 0
KEN1 150750Z 21005KT 01/M03 A3038 RMK A01 T00061026  RH  079%=      5-min Rain = 0
KEN1 150751Z 21005KT 01/M03 A3038 RMK A01 T00061026  RH  079%=      5-min Rain = 0
KEN1 150752Z 20005KT 01/M03 A3038 RMK A01 T00061027  RH  079%=      5-min Rain = 0
KEN1 150753Z 20006KT 01/M03 A3038 RMK A01 T00071027  RH  078%=      5-min Rain = 0
KEN1 150754Z 20006KT 01/M03 A3038 RMK A01 T00071027  RH  078%=      5-min Rain = 0
KEN1 150755Z 20005KT 01/M03 A3037 RMK A01 T00071027  RH  078%=      5-min Rain = 0
KEN1 150756Z 20005KT 01/M03 A3037 RMK A01 T00071028  RH  078%=      5-min Rain = 0
KEN1 150757Z 19006KT 01/M03 A3037 RMK A01 T00071027  RH  078%=      5-min Rain = 0
KEN1 150758Z 19006KT 01/M03 A3037 RMK A01 T00071027  RH  078%=      5-min Rain = 0
KEN1 150759Z 19006KT 01/M03 A3037 RMK A01 T00081026  RH  078%=      5-min Rain = 0
KEN1 150800Z 19006KT 01/M03 A3037 RMK A01 T00101026  RH  077%=      5-min Rain = 0
KEN1 150801Z 19006KT 01/M03 A3037 RMK A01 T00101026  RH  077%=      5-min Rain = 0
KEN1 150802Z 19006KT 01/M03 A3037 RMK A01 T00101027  RH  076%=      5-min Rain = 0
KEN1 150803Z 19006KT 01/M03 A3037 RMK A01 T00111026  RH  077%=      5-min Rain = 0
KEN1 150804Z 18006KT 01/M03 A3037 RMK A01 T00111026  RH  076%=      5-min Rain = 0
KEN1 150805Z 18006KT 01/M03 A3037 RMK A01 T00121026  RH  076%=      5-min Rain = 0
KEN1 150806Z 18005KT 01/M03 A3037 RMK A01 T00131025  RH  076%=      5-min Rain = 0
KEN1 150807Z 20006KT 01/M03 A3037 RMK A01 T00131025  RH  076%=      5-min Rain = 0
KEN1 150808Z 20006KT 01/M03 A3037 RMK A01 T00131025  RH  076%=      5-min Rain = 0
KEN1 150809Z 20005KT 01/M03 A3037 RMK A01 T00141025  RH  076%=      5-min Rain = 0
KEN1 150810Z 20006KT 01/M03 A3037 RMK A01 T00141025  RH  075%=      5-min Rain = 0
KEN1 150811Z 19005KT 01/M03 A3037 RMK A01 T00141025  RH  075%=      5-min Rain = 0
KEN1 150812Z 19005KT 01/M03 A3037 RMK A01 T00111028  RH  075%=      5-min Rain = 0
KEN1 150813Z 18005KT 01/M03 A3037 RMK A01 T00091029  RH  076%=      5-min Rain = 0
KEN1 150814Z 15004KT 01/M03 A3037 RMK A01 T00061030  RH  076%=      5-min Rain = 0
KEN1 150815Z 17004KT 00/M03 A3037 RMK A01 T00021033  RH  077%=      5-min Rain = 0
KEN1 150816Z 18004KT 00/03 A3037 RMK A01 T00-00-33  RH  079%=      5-min Rain = 0
KEN1 150817Z 17004KT M00/M03 A3037 RMK A01 T10011032  RH  080%=      5-min Rain = 0
KEN1 150818Z 18004KT M00/M03 A3037 RMK A01 T10031033  RH  080%=      5-min Rain = 0
KEN1 150819Z 19004KT M00/M03 A3037 RMK A01 T10041033  RH  081%=      5-min Rain = 0
KEN1 150820Z 19004KT M01/M03 A3037 RMK A01 T10051033  RH  081%=      5-min Rain = 0
KEN1 150821Z 20004KT M01/M03 A3037 RMK A01 T10061032  RH  082%=      5-min Rain = 0
KEN1 150822Z 21004KT M00/M03 A3037 RMK A01 T10041029  RH  083%=      5-min Rain = 0
KEN1 150823Z 20004KT M00/M03 A3037 RMK A01 T10021028  RH  083%=      5-min Rain = 0
KEN1 150824Z 21004KT 00/03 A3037 RMK A01 T00-00-27  RH  082%=      5-min Rain = 0
KEN1 150825Z 22004KT 00/M03 A3037 RMK A01 T00031025  RH  082%=      5-min Rain = 0
KEN1 150826Z 22004KT 01/M02 A3037 RMK A01 T00061024  RH  080%=      5-min Rain = 0
KEN1 150827Z 22004KT 01/M02 A3037 RMK A01 T00081024  RH  079%=      5-min Rain = 0
KEN1 150828Z 22004KT 01/M02 A3037 RMK A01 T00101024  RH  078%=      5-min Rain = 0
KEN1 150829Z 22004KT 01/M02 A3037 RMK A01 T00121023  RH  077%=      5-min Rain = 0
KEN1 150830Z 23004KT 02/M02 A3037 RMK A01 T00151022  RH  077%=      5-min Rain = 0
KEN1 150831Z 23004KT 02/M02 A3037 RMK A01 T00171022  RH  076%=      5-min Rain = 0
KEN1 150832Z 22004KT 02/M02 A3037 RMK A01 T00181023  RH  074%=      5-min Rain = 0
KEN1 150833Z 22004KT 02/M02 A3037 RMK A01 T00181024  RH  074%=      5-min Rain = 0
KEN1 150834Z 23005KT 02/M02 A3037 RMK A01 T00181023  RH  074%=      5-min Rain = 0
KEN1 150835Z 23005KT 02/M02 A3037 RMK A01 T00191022  RH  074%=      5-min Rain = 0
KEN1 150836Z 23005KT 02/M02 A3037 RMK A01 T00211022  RH  074%=      5-min Rain = 0
KEN1 150837Z 23004KT 02/M02 A3037 RMK A01 T00211022  RH  073%=      5-min Rain = 0
KEN1 150838Z 23005KT 02/M02 A3037 RMK A01 T00211024  RH  072%=      5-min Rain = 0
KEN1 150839Z 23005KT 02/M03 A3037 RMK A01 T00191025  RH  073%=      5-min Rain = 0
KEN1 150840Z 23005KT 02/M03 A3037 RMK A01 T00181025  RH  073%=      5-min Rain = 0
KEN1 150841Z 24005KT 02/M03 A3036 RMK A01 T00181025  RH  073%=      5-min Rain = 0
KEN1 150842Z 24005KT 02/M02 A3036 RMK A01 T00181024  RH  074%=      5-min Rain = 0
KEN1 150843Z 23005KT 02/M03 A3036 RMK A01 T00171025  RH  074%=      5-min Rain = 0
KEN1 150844Z 23005KT 02/M03 A3036 RMK A01 T00171025  RH  074%=      5-min Rain = 0
KEN1 150845Z 23005KT 02/M02 A3036 RMK A01 T00171024  RH  074%=      5-min Rain = 0
KEN1 150846Z 23005KT 02/M02 A3036 RMK A01 T00171024  RH  074%=      5-min Rain = 0
KEN1 150847Z 23006KT 02/M02 A3036 RMK A01 T00171024  RH  074%=      5-min Rain = 0
KEN1 150848Z 23005KT 02/M02 A3036 RMK A01 T00171024  RH  074%=      5-min Rain = 0
KEN1 150849Z 23006KT 02/M02 A3036 RMK A01 T00171024  RH  074%=      5-min Rain = 0
KEN1 150850Z 23005KT 02/M03 A3036 RMK A01 T00161025  RH  074%=      5-min Rain = 0
KEN1 150851Z 23005KT 02/M03 A3036 RMK A01 T00151025  RH  075%=      5-min Rain = 0
KEN1 150852Z 22005KT 02/M03 A3036 RMK A01 T00151025  RH  075%=      5-min Rain = 0
KEN1 150853Z 22005KT 02/M02 A3036 RMK A01 T00151024  RH  075%=      5-min Rain = 0
KEN1 150854Z 22006KT 02/M03 A3036 RMK A01 T00151025  RH  075%=      5-min Rain = 0
KEN1 150855Z 22006KT 02/M03 A3036 RMK A01 T00151025  RH  075%=      5-min Rain = 0
KEN1 150856Z 23005KT 02/M02 A3036 RMK A01 T00161024  RH  075%=      5-min Rain = 0
KEN1 150857Z 22006KT 02/M02 A3036 RMK A01 T00161024  RH  075%=      5-min Rain = 0
KEN1 150858Z 22006KT 02/M02 A3036 RMK A01 T00171024  RH  074%=      5-min Rain = 0
KEN1 150859Z 22006KT 02/M02 A3036 RMK A01 T00191023  RH  074%=      5-min Rain = 0
KEN1 150900Z 21006KT 02/M02 A3036 RMK A01 T00201023  RH  073%=      5-min Rain = 0
KEN1 150901Z 21006KT 02/M02 A3036 RMK A01 T00201022  RH  073%=      5-min Rain = 0
KEN1 150902Z 21006KT 02/M02 A3036 RMK A01 T00211022  RH  073%=      5-min Rain = 0
KEN1 150903Z 21006KT 02/M02 A3036 RMK A01 T00221021  RH  073%=      5-min Rain = 0
KEN1 150904Z 21006KT 02/M02 A3036 RMK A01 T00221021  RH  073%=      5-min Rain = 0
KEN1 150905Z 21006KT 02/M02 A3036 RMK A01 T00231021  RH  073%=      5-min Rain = 0
KEN1 150906Z 21006KT 02/M02 A3036 RMK A01 T00241021  RH  072%=      5-min Rain = 0
KEN1 150907Z 21006KT 02/M02 A3036 RMK A01 T00241021  RH  072%=      5-min Rain = 0
KEN1 150908Z 21007KT 02/M02 A3036 RMK A01 T00241021  RH  072%=      5-min Rain = 0
KEN1 150909Z 20007KT 02/M02 A3036 RMK A01 T00241022  RH  072%=      5-min Rain = 0
KEN1 150910Z 21007KT 02/M02 A3035 RMK A01 T00241022  RH  072%=      5-min Rain = 0
KEN1 150911Z 21007KT 02/M02 A3035 RMK A01 T00231022  RH  072%=      5-min Rain = 0
KEN1 150912Z 21007KT 02/M02 A3035 RMK A01 T00231023  RH  072%=      5-min Rain = 0
KEN1 150913Z 21007KT 02/M02 A3035 RMK A01 T00221023  RH  072%=      5-min Rain = 0
KEN1 150914Z 21007KT 02/M02 A3035 RMK A01 T00221022  RH  072%=      5-min Rain = 0
KEN1 150915Z 21007KT 02/M02 A3035 RMK A01 T00231022  RH  072%=      5-min Rain = 0
KEN1 150916Z 21006KT 02/M02 A3035 RMK A01 T00231023  RH  072%=      5-min Rain = 0
KEN1 150917Z 21006KT 02/M02 A3035 RMK A01 T00231022  RH  072%=      5-min Rain = 0
KEN1 150918Z 21006KT 02/M02 A3035 RMK A01 T00231022  RH  072%=      5-min Rain = 0
KEN1 150919Z 21006KT 02/M02 A3035 RMK A01 T00231022  RH  072%=      5-min Rain = 0
KEN1 150920Z 20006KT 02/M02 A3035 RMK A01 T00231023  RH  072%=      5-min Rain = 0
KEN1 150921Z 20005KT 02/M02 A3035 RMK A01 T00221023  RH  072%=      5-min Rain = 0
KEN1 150922Z 19005KT 02/M02 A3035 RMK A01 T00211024  RH  072%=      5-min Rain = 0
KEN1 150923Z 19005KT 02/M02 A3035 RMK A01 T00191024  RH  073%=      5-min Rain = 0
KEN1 150924Z 20005KT 02/M02 A3035 RMK A01 T00191024  RH  073%=      5-min Rain = 0
KEN1 150925Z 19005KT 02/M02 A3035 RMK A01 T00191024  RH  073%=      5-min Rain = 0
KEN1 150926Z 19005KT 02/M03 A3035 RMK A01 T00191025  RH  073%=      5-min Rain = 0
KEN1 150927Z 18004KT 02/M03 A3035 RMK A01 T00171025  RH  074%=      5-min Rain = 0
KEN1 150928Z 19004KT 02/M02 A3035 RMK A01 T00171024  RH  074%=      5-min Rain = 0
KEN1 150929Z 19005KT 02/M03 A3035 RMK A01 T00171025  RH  074%=      5-min Rain = 0
KEN1 150930Z 19005KT 02/M03 A3035 RMK A01 T00161025  RH  074%=      5-min Rain = 0
KEN1 150931Z 19005KT 02/M02 A3035 RMK A01 T00171024  RH  074%=      5-min Rain = 0
KEN1 150932Z 20005KT 02/M02 A3035 RMK A01 T00191022  RH  074%=      5-min Rain = 0
KEN1 150933Z 20006KT 02/M02 A3035 RMK A01 T00211022  RH  074%=      5-min Rain = 0
KEN1 150934Z 20006KT 03/M02 A3035 RMK A01 T00251019  RH  073%=      5-min Rain = 0
KEN1 150935Z 20006KT 03/M02 A3035 RMK A01 T00271020  RH  071%=      5-min Rain = 0
KEN1 150936Z 20006KT 03/M02 A3035 RMK A01 T00281020  RH  071%=      5-min Rain = 0
KEN1 150937Z 20006KT 03/M02 A3035 RMK A01 T00301019  RH  070%=      5-min Rain = 0
KEN1 150938Z 20005KT 03/M02 A3035 RMK A01 T00301019  RH  070%=      5-min Rain = 0
KEN1 150939Z 20005KT 03/M02 A3035 RMK A01 T00301020  RH  070%=      5-min Rain = 0
KEN1 150940Z 20004KT 03/M02 A3035 RMK A01 T00291021  RH  070%=      5-min Rain = 0
KEN1 150941Z 20005KT 03/M02 A3035 RMK A01 T00281021  RH  070%=      5-min Rain = 0
KEN1 150942Z 20005KT 03/M02 A3035 RMK A01 T00281021  RH  070%=      5-min Rain = 0
KEN1 150943Z 20004KT 03/M02 A3035 RMK A01 T00271021  RH  070%=      5-min Rain = 0
KEN1 150944Z 21004KT 03/M02 A3035 RMK A01 T00271021  RH  071%=      5-min Rain = 0
KEN1 150945Z 21004KT 03/M02 A3035 RMK A01 T00271021  RH  071%=      5-min Rain = 0
KEN1 150946Z 21003KT 03/M02 A3035 RMK A01 T00261022  RH  071%=      5-min Rain = 0
KEN1 150947Z 21003KT 03/M02 A3034 RMK A01 T00261021  RH  071%=      5-min Rain = 0
KEN1 150948Z 21003KT 03/M02 A3034 RMK A01 T00261021  RH  071%=      5-min Rain = 0
KEN1 150949Z 21003KT 03/M02 A3034 RMK A01 T00271021  RH  071%=      5-min Rain = 0
KEN1 150950Z 20003KT 03/M02 A3034 RMK A01 T00281020  RH  071%=      5-min Rain = 0
KEN1 150951Z 20003KT 03/M02 A3034 RMK A01 T00291020  RH  070%=      5-min Rain = 0
KEN1 150952Z 20002KT 03/M02 A3034 RMK A01 T00301020  RH  070%=      5-min Rain = 0
KEN1 150953Z 20003KT 03/M02 A3034 RMK A01 T00291020  RH  070%=      5-min Rain = 0
KEN1 150954Z 20004KT 03/M02 A3034 RMK A01 T00301020  RH  070%=      5-min Rain = 0
KEN1 150955Z 20004KT 03/M02 A3034 RMK A01 T00311020  RH  070%=      5-min Rain = 0
KEN1 150956Z 21004KT 03/M02 A3034 RMK A01 T00311020  RH  069%=      5-min Rain = 0
KEN1 150957Z 21004KT 03/M02 A3034 RMK A01 T00311021  RH  069%=      5-min Rain = 0
KEN1 150958Z 21005KT 03/M02 A3034 RMK A01 T00311021  RH  069%=      5-min Rain = 0
KEN1 150959Z 21005KT 03/M02 A3034 RMK A01 T00311020  RH  069%=      5-min Rain = 0
KEN1 151000Z 20004KT 03/M02 A3034 RMK A01 T00311021  RH  069%=      5-min Rain = 0
KEN1 151001Z 19004KT 03/M02 A3034 RMK A01 T00311021  RH  069%=      5-min Rain = 0
KEN1 151002Z 20004KT 03/M02 A3034 RMK A01 T00301022  RH  069%=      5-min Rain = 0
KEN1 151003Z 20004KT 03/M02 A3034 RMK A01 T00301021  RH  069%=      5-min Rain = 0
KEN1 151004Z 20005KT 03/M02 A3034 RMK A01 T00291023  RH  069%=      5-min Rain = 0
KEN1 151005Z 19004KT 03/M02 A3034 RMK A01 T00281023  RH  069%=      5-min Rain = 0
KEN1 151006Z 19004KT 03/M02 A3034 RMK A01 T00271022  RH  070%=      5-min Rain = 0
KEN1 151007Z 18004KT 03/M02 A3034 RMK A01 T00261023  RH  070%=      5-min Rain = 0
KEN1 151008Z 19004KT 03/M02 A3034 RMK A01 T00261023  RH  070%=      5-min Rain = 0
KEN1 151009Z 18004KT 03/M02 A3033 RMK A01 T00251023  RH  071%=      5-min Rain = 0
KEN1 151010Z 18004KT 03/M02 A3033 RMK A01 T00251023  RH  071%=      5-min Rain = 0
KEN1 151011Z 17004KT 02/M02 A3033 RMK A01 T00231024  RH  071%=      5-min Rain = 0
KEN1 151012Z 18005KT 02/M02 A3033 RMK A01 T00221024  RH  072%=      5-min Rain = 0
KEN1 151013Z 18004KT 02/M02 A3033 RMK A01 T00211023  RH  072%=      5-min Rain = 0
KEN1 151014Z 19005KT 02/M02 A3033 RMK A01 T00201024  RH  073%=      5-min Rain = 0
KEN1 151015Z 19004KT 02/M02 A3033 RMK A01 T00201023  RH  073%=      5-min Rain = 0
KEN1 151016Z 20005KT 02/M02 A3033 RMK A01 T00201023  RH  073%=      5-min Rain = 0
KEN1 151017Z 20005KT 02/M02 A3033 RMK A01 T00211021  RH  073%=      5-min Rain = 0
KEN1 151018Z 21005KT 02/M02 A3033 RMK A01 T00221021  RH  073%=      5-min Rain = 0
KEN1 151019Z 21006KT 03/M02 A3033 RMK A01 T00251020  RH  072%=      5-min Rain = 0
KEN1 151020Z 20005KT 03/M02 A3033 RMK A01 T00271020  RH  071%=      5-min Rain = 0
KEN1 151021Z 21005KT 03/M02 A3033 RMK A01 T00281020  RH  071%=      5-min Rain = 0
KEN1 151022Z 20005KT 03/M02 A3033 RMK A01 T00281021  RH  070%=      5-min Rain = 0
KEN1 151023Z 20005KT 03/M02 A3033 RMK A01 T00281021  RH  070%=      5-min Rain = 0
KEN1 151024Z 20004KT 03/M02 A3033 RMK A01 T00271023  RH  070%=      5-min Rain = 0
KEN1 151025Z 21005KT 02/M02 A3033 RMK A01 T00241024  RH  070%=      5-min Rain = 0
KEN1 151026Z 21005KT 02/M02 A3033 RMK A01 T00221024  RH  071%=      5-min Rain = 0
KEN1 151027Z 22006KT 02/M02 A3033 RMK A01 T00211024  RH  072%=      5-min Rain = 0
KEN1 151028Z 21006KT 02/M02 A3033 RMK A01 T00201024  RH  073%=      5-min Rain = 0
KEN1 151029Z 21006KT 02/M02 A3033 RMK A01 T00191023  RH  073%=      5-min Rain = 0
KEN1 151030Z 21006KT 02/M02 A3033 RMK A01 T00191023  RH  073%=      5-min Rain = 0
KEN1 151031Z 21006KT 02/M02 A3033 RMK A01 T00191024  RH  073%=      5-min Rain = 0
KEN1 151032Z 21006KT 02/M03 A3033 RMK A01 T00161027  RH  073%=      5-min Rain = 0
KEN1 151033Z 21006KT 01/M03 A3033 RMK A01 T00141028  RH  074%=      5-min Rain = 0
KEN1 151034Z 20003KT 01/M03 A3033 RMK A01 T00121027  RH  075%=      5-min Rain = 0
KEN1 151035Z 22003KT 01/M03 A3033 RMK A01 T00121026  RH  076%=      5-min Rain = 0
KEN1 151036Z 23003KT 01/M03 A3033 RMK A01 T00121025  RH  076%=      5-min Rain = 0
KEN1 151037Z 21006KT 01/M02 A3033 RMK A01 T00121024  RH  077%=      5-min Rain = 0
KEN1 151038Z 22005KT 01/M02 A3033 RMK A01 T00131024  RH  077%=      5-min Rain = 0
KEN1 151039Z 21005KT 01/M03 A3033 RMK A01 T00121025  RH  076%=      5-min Rain = 0
KEN1 151040Z 21006KT 01/M03 A3033 RMK A01 T00121025  RH  076%=      5-min Rain = 0
KEN1 151041Z 20006KT 01/M03 A3033 RMK A01 T00131025  RH  076%=      5-min Rain = 0
KEN1 151042Z 20006KT 01/M03 A3033 RMK A01 T00131025  RH  076%=      5-min Rain = 0
KEN1 151043Z 21006KT 01/M02 A3033 RMK A01 T00131024  RH  076%=      5-min Rain = 0
KEN1 151044Z 21006KT 02/M02 A3033 RMK A01 T00151023  RH  076%=      5-min Rain = 0
KEN1 151045Z 21006KT 02/M02 A3033 RMK A01 T00191020  RH  075%=      5-min Rain = 0
KEN1 151046Z 21005KT 02/M02 A3032 RMK A01 T00221020  RH  073%=      5-min Rain = 0
KEN1 151047Z 21006KT 02/M02 A3033 RMK A01 T00241020  RH  073%=      5-min Rain = 0
KEN1 151048Z 22005KT 03/M02 A3033 RMK A01 T00251020  RH  072%=      5-min Rain = 0
KEN1 151049Z 21005KT 03/M02 A3033 RMK A01 T00271019  RH  072%=      5-min Rain = 0
KEN1 151050Z 22005KT 03/M02 A3033 RMK A01 T00291018  RH  071%=      5-min Rain = 0
KEN1 151051Z 21005KT 03/M02 A3033 RMK A01 T00321017  RH  070%=      5-min Rain = 0
KEN1 151052Z 21005KT 03/M02 A3033 RMK A01 T00341018  RH  069%=      5-min Rain = 0
KEN1 151053Z 22004KT 03/M02 A3033 RMK A01 T00341019  RH  068%=      5-min Rain = 0
KEN1 151054Z 23005KT 03/M02 A3033 RMK A01 T00321020  RH  069%=      5-min Rain = 0
KEN1 151055Z 23004KT 03/M02 A3033 RMK A01 T00311020  RH  069%=      5-min Rain = 0
KEN1 151056Z 23005KT 03/M02 A3033 RMK A01 T00321019  RH  069%=      5-min Rain = 0
KEN1 151057Z 22005KT 03/M02 A3033 RMK A01 T00331018  RH  069%=      5-min Rain = 0
KEN1 151058Z 22005KT 03/M02 A3032 RMK A01 T00331019  RH  068%=      5-min Rain = 0
KEN1 151059Z 22004KT 03/M02 A3032 RMK A01 T00331019  RH  069%=      5-min Rain = 0
KEN1 151100Z 23005KT 03/M02 A3032 RMK A01 T00321019  RH  069%=      5-min Rain = 0
KEN1 151101Z 23005KT 03/M02 A3032 RMK A01 T00321019  RH  069%=      5-min Rain = 0
KEN1 151102Z 23004KT 03/M02 A3032 RMK A01 T00321019  RH  069%=      5-min Rain = 0
KEN1 151103Z 22005KT 03/M02 A3032 RMK A01 T00321019  RH  069%=      5-min Rain = 0
KEN1 151104Z 23005KT 03/M02 A3032 RMK A01 T00311021  RH  069%=      5-min Rain = 0
KEN1 151105Z 23005KT 03/M02 A3032 RMK A01 T00291021  RH  070%=      5-min Rain = 0
KEN1 151106Z 23006KT 03/M02 A3032 RMK A01 T00271021  RH  070%=      5-min Rain = 0
KEN1 151107Z 23005KT 03/M02 A3032 RMK A01 T00271021  RH  071%=      5-min Rain = 0
KEN1 151108Z 23005KT 03/M02 A3032 RMK A01 T00261021  RH  071%=      5-min Rain = 0
KEN1 151109Z 23006KT 03/M02 A3032 RMK A01 T00261021  RH  071%=      5-min Rain = 0
KEN1 151110Z 23006KT 03/M02 A3032 RMK A01 T00251021  RH  071%=      5-min Rain = 0
KEN1 151111Z 23006KT 02/M02 A3032 RMK A01 T00241022  RH  072%=      5-min Rain = 0
KEN1 151112Z 23006KT 02/M02 A3032 RMK A01 T00231022  RH  072%=      5-min Rain = 0
KEN1 151113Z 23006KT 02/M02 A3032 RMK A01 T00231021  RH  072%=      5-min Rain = 0
KEN1 151114Z 23006KT 02/M02 A3032 RMK A01 T00231021  RH  072%=      5-min Rain = 0
KEN1 151115Z 23006KT 02/M02 A3032 RMK A01 T00241021  RH  072%=      5-min Rain = 0
KEN1 151116Z 23006KT 02/M02 A3032 RMK A01 T00241021  RH  072%=      5-min Rain = 0
KEN1 151117Z 22006KT 02/M02 A3032 RMK A01 T00231022  RH  072%=      5-min Rain = 0
KEN1 151118Z 22006KT 02/M02 A3032 RMK A01 T00211023  RH  073%=      5-min Rain = 0
KEN1 151119Z 22006KT 02/M02 A3032 RMK A01 T00211023  RH  073%=      5-min Rain = 0
KEN1 151120Z 22007KT 02/M02 A3032 RMK A01 T00201022  RH  073%=      5-min Rain = 0
KEN1 151121Z 22006KT 02/M02 A3032 RMK A01 T00201022  RH  073%=      5-min Rain = 0
KEN1 151122Z 21006KT 02/M02 A3032 RMK A01 T00211022  RH  073%=      5-min Rain = 0
KEN1 151123Z 21007KT 02/M02 A3032 RMK A01 T00201023  RH  073%=      5-min Rain = 0
KEN1 151124Z 21007KT 02/M02 A3032 RMK A01 T00201023  RH  073%=      5-min Rain = 0
KEN1 151125Z 22007KT 02/M02 A3032 RMK A01 T00191022  RH  074%=      5-min Rain = 0
KEN1 151126Z 21007KT 02/M02 A3032 RMK A01 T00191023  RH  074%=      5-min Rain = 0
KEN1 151127Z 21006KT 02/M02 A3032 RMK A01 T00191023  RH  074%=      5-min Rain = 0
KEN1 151128Z 21006KT 02/M02 A3032 RMK A01 T00181024  RH  074%=      5-min Rain = 0
KEN1 151129Z 22006KT 02/M02 A3032 RMK A01 T00161024  RH  075%=      5-min Rain = 0
KEN1 151130Z 22006KT 02/M02 A3032 RMK A01 T00151024  RH  075%=      5-min Rain = 0
KEN1 151131Z 22008KT 02/M02 A3032 RMK A01 T00151024  RH  076%=      5-min Rain = 0
KEN1 151132Z 22007KT 02/M02 A3032 RMK A01 T00151023  RH  076%=      5-min Rain = 0
KEN1 151133Z 22006KT 02/M02 A3032 RMK A01 T00151024  RH  075%=      5-min Rain = 0
KEN1 151134Z 22006KT 01/M03 A3032 RMK A01 T00141025  RH  075%=      5-min Rain = 0
KEN1 151135Z 22007KT 01/M03 A3032 RMK A01 T00141025  RH  076%=      5-min Rain = 0
KEN1 151136Z 23007KT 01/M02 A3032 RMK A01 T00131024  RH  076%=      5-min Rain = 0
KEN1 151137Z 22007KT 01/M02 A3032 RMK A01 T00131024  RH  076%=      5-min Rain = 0
KEN1 151138Z 22007KT 01/M03 A3032 RMK A01 T00121025  RH  077%=      5-min Rain = 0
KEN1 151139Z 21007KT 01/M02 A3032 RMK A01 T00121024  RH  077%=      5-min Rain = 0
KEN1 151140Z 21007KT 01/M02 A3032 RMK A01 T00121024  RH  077%=      5-min Rain = 0
KEN1 151141Z 21007KT 01/M02 A3032 RMK A01 T00131023  RH  077%=      5-min Rain = 0
KEN1 151142Z 21007KT 01/M02 A3032 RMK A01 T00131022  RH  077%=      5-min Rain = 0
KEN1 151143Z 21007KT 01/M02 A3032 RMK A01 T00141022  RH  077%=      5-min Rain = 0
KEN1 151144Z 20006KT 01/M02 A3032 RMK A01 T00131023  RH  077%=      5-min Rain = 0
KEN1 151145Z 20006KT 01/M02 A3032 RMK A01 T00131023  RH  077%=      5-min Rain = 0
KEN1 151146Z 20006KT 01/M02 A3032 RMK A01 T00131023  RH  077%=      5-min Rain = 0
KEN1 151147Z 21006KT 01/M02 A3032 RMK A01 T00111024  RH  077%=      5-min Rain = 0
KEN1 151148Z 20006KT 01/M02 A3032 RMK A01 T00111024  RH  078%=      5-min Rain = 0
KEN1 151149Z 20006KT 01/M02 A3032 RMK A01 T00111023  RH  078%=      5-min Rain = 0
KEN1 151150Z 20006KT 01/M02 A3032 RMK A01 T00121022  RH  078%=      5-min Rain = 0
KEN1 151151Z 20006KT 01/M02 A3032 RMK A01 T00121022  RH  078%=      5-min Rain = 0
KEN1 151152Z 20007KT 01/M02 A3032 RMK A01 T00121023  RH  078%=      5-min Rain = 0
KEN1 151153Z 21006KT 01/M02 A3032 RMK A01 T00131022  RH  078%=      5-min Rain = 0
KEN1 151154Z 21006KT 01/M02 A3032 RMK A01 T00131022  RH  078%=      5-min Rain = 0
KEN1 151155Z 21005KT 01/M02 A3032 RMK A01 T00141021  RH  078%=      5-min Rain = 0
KEN1 151156Z 21005KT 01/M02 A3032 RMK A01 T00141021  RH  077%=      5-min Rain = 0
KEN1 151157Z 21005KT 01/M02 A3032 RMK A01 T00141022  RH  077%=      5-min Rain = 0
KEN1 151158Z 21005KT 01/M02 A3032 RMK A01 T00141021  RH  077%=      5-min Rain = 0
KEN1 151159Z 21006KT 02/M02 A3032 RMK A01 T00151020  RH  078%=      5-min Rain = 0
KEN1 151200Z 22006KT 02/M02 A3031 RMK A01 T00161020  RH  077%=      5-min Rain = 0
KEN1 151201Z 22006KT 02/M02 A3031 RMK A01 T00171020  RH  076%=      5-min Rain = 0
KEN1 151202Z 21007KT 02/M02 A3031 RMK A01 T00181021  RH  076%=      5-min Rain = 0
KEN1 151203Z 22007KT 02/M02 A3031 RMK A01 T00181021  RH  075%=      5-min Rain = 0
KEN1 151204Z 22007KT 02/M02 A3031 RMK A01 T00191021  RH  075%=      5-min Rain = 0
KEN1 151205Z 21006KT 02/M02 A3031 RMK A01 T00191021  RH  075%=      5-min Rain = 0
KEN1 151206Z 22007KT 02/M02 A3031 RMK A01 T00191020  RH  075%=      5-min Rain = 0
KEN1 151207Z 22007KT 02/M02 A3031 RMK A01 T00181020  RH  076%=      5-min Rain = 0
KEN1 151208Z 21006KT 02/M02 A3031 RMK A01 T00191020  RH  076%=      5-min Rain = 0
KEN1 151209Z 22006KT 02/M02 A3031 RMK A01 T00191020  RH  076%=      5-min Rain = 0
KEN1 151210Z 22007KT 02/M02 A3031 RMK A01 T00191020  RH  075%=      5-min Rain = 0
KEN1 151211Z 22006KT 02/M02 A3031 RMK A01 T00191020  RH  075%=      5-min Rain = 0
KEN1 151212Z 22006KT 02/M02 A3031 RMK A01 T00191020  RH  075%=      5-min Rain = 0
KEN1 151213Z 22006KT 02/M02 A3031 RMK A01 T00211019  RH  075%=      5-min Rain = 0
KEN1 151214Z 22005KT 02/M02 A3031 RMK A01 T00201020  RH  075%=      5-min Rain = 0
KEN1 151215Z 21005KT 02/M02 A3031 RMK A01 T00191020  RH  075%=      5-min Rain = 0
KEN1 151216Z 20004KT 02/M02 A3031 RMK A01 T00191020  RH  075%=      5-min Rain = 0
KEN1 151217Z 21005KT 02/M02 A3031 RMK A01 T00191021  RH  075%=      5-min Rain = 0
KEN1 151218Z 21005KT 02/M02 A3031 RMK A01 T00181022  RH  075%=      5-min Rain = 0
KEN1 151219Z 21005KT 02/M02 A3031 RMK A01 T00181022  RH  075%=      5-min Rain = 0
KEN1 151220Z 20006KT 02/M02 A3031 RMK A01 T00171022  RH  075%=      5-min Rain = 0
KEN1 151221Z 20006KT 02/M02 A3031 RMK A01 T00181022  RH  075%=      5-min Rain = 0
KEN1 151222Z 20006KT 02/M02 A3031 RMK A01 T00171022  RH  075%=      5-min Rain = 0
KEN1 151223Z 21007KT 02/M02 A3031 RMK A01 T00171022  RH  075%=      5-min Rain = 0
KEN1 151224Z 21006KT 02/M02 A3031 RMK A01 T00181021  RH  075%=      5-min Rain = 0
KEN1 151225Z 20006KT 02/M02 A3031 RMK A01 T00191020  RH  075%=      5-min Rain = 0
KEN1 151226Z 20006KT 02/M02 A3031 RMK A01 T00201020  RH  075%=      5-min Rain = 0
KEN1 151227Z 20006KT 02/M02 A3031 RMK A01 T00191021  RH  075%=      5-min Rain = 0
KEN1 151228Z 20006KT 02/M02 A3031 RMK A01 T00181021  RH  075%=      5-min Rain = 0
KEN1 151229Z 21006KT 02/M02 A3031 RMK A01 T00171022  RH  076%=      5-min Rain = 0
KEN1 151230Z 21006KT 02/M02 A3031 RMK A01 T00161022  RH  076%=      5-min Rain = 0
KEN1 151231Z 21006KT 02/M02 A3031 RMK A01 T00171021  RH  076%=      5-min Rain = 0
KEN1 151232Z 20005KT 02/M02 A3031 RMK A01 T00171021  RH  076%=      5-min Rain = 0
KEN1 151233Z 21006KT 02/M02 A3031 RMK A01 T00171021  RH  076%=      5-min Rain = 0
KEN1 151234Z 21005KT 02/M02 A3031 RMK A01 T00181021  RH  076%=      5-min Rain = 0
KEN1 151235Z 21006KT 02/M02 A3031 RMK A01 T00181021  RH  076%=      5-min Rain = 0
KEN1 151236Z 20005KT 02/M02 A3031 RMK A01 T00171021  RH  075%=      5-min Rain = 0
KEN1 151237Z 20004KT 02/M02 A3031 RMK A01 T00171022  RH  075%=      5-min Rain = 0
KEN1 151238Z 19005KT 02/M02 A3031 RMK A01 T00161022  RH  076%=      5-min Rain = 0
KEN1 151239Z 19005KT 02/M02 A3031 RMK A01 T00161022  RH  076%=      5-min Rain = 0
KEN1 151240Z 19005KT 02/M02 A3031 RMK A01 T00161022  RH  076%=      5-min Rain = 0
KEN1 151241Z 19005KT 02/M02 A3031 RMK A01 T00161022  RH  076%=      5-min Rain = 0
KEN1 151242Z 19006KT 02/M02 A3031 RMK A01 T00161022  RH  076%=      5-min Rain = 0
KEN1 151243Z 19005KT 02/M02 A3031 RMK A01 T00161022  RH  076%=      5-min Rain = 0
KEN1 151244Z 20006KT 02/M02 A3031 RMK A01 T00161022  RH  076%=      5-min Rain = 0
KEN1 151245Z 20006KT 02/M02 A3031 RMK A01 T00161021  RH  076%=      5-min Rain = 0
KEN1 151246Z 20008KT 02/M02 A3031 RMK A01 T00171021  RH  076%=      5-min Rain = 0
KEN1 151247Z 20007KT 02/M02 A3031 RMK A01 T00201019  RH  076%=      5-min Rain = 0
KEN1 151248Z 20007KT 02/M02 A303 RMK A01 T00211019  RH  075%=      5-min Rain = 0
KEN1 151249Z 19006KT 02/M02 A303 RMK A01 T00201020  RH  075%=      5-min Rain = 0
KEN1 151250Z 20006KT 02/M02 A303 RMK A01 T00191021  RH  075%=      5-min Rain = 0
KEN1 151251Z 19006KT 02/M02 A303 RMK A01 T00181021  RH  075%=      5-min Rain = 0
KEN1 151252Z 19005KT 02/M02 A3031 RMK A01 T00171022  RH  075%=      5-min Rain = 0
KEN1 151253Z 19006KT 02/M02 A3031 RMK A01 T00161022  RH  076%=      5-min Rain = 0
KEN1 151254Z 19006KT 02/M02 A3031 RMK A01 T00151022  RH  076%=      5-min Rain = 0
KEN1 151255Z 19006KT 02/M02 A3031 RMK A01 T00161021  RH  077%=      5-min Rain = 0
KEN1 151256Z 19007KT 02/M02 A3031 RMK A01 T00151021  RH  077%=      5-min Rain = 0
KEN1 151257Z 19008KT 01/M02 A303 RMK A01 T00141022  RH  077%=      5-min Rain = 0
KEN1 151258Z 20008KT 01/M02 A303 RMK A01 T00121021  RH  078%=      5-min Rain = 0
KEN1 151259Z 19009KT 01/M02 A303 RMK A01 T00121020  RH  079%=      5-min Rain = 0
KEN1 151300Z 20010KT 01/M02 A303 RMK A01 T00131018  RH  080%=      5-min Rain = 0
KEN1 151301Z 20010KT 02/M02 A303 RMK A01 T00171015  RH  080%=      5-min Rain = 0
KEN1 151302Z 20010KT 02/M01 A303 RMK A01 T00221012  RH  078%=      5-min Rain = 0
KEN1 151303Z 20011KT 03/M01 A303 RMK A01 T00261011  RH  076%=      5-min Rain = 0
KEN1 151304Z 20011KT 03/M01 A303 RMK A01 T00311010  RH  074%=      5-min Rain = 0
KEN1 151305Z 20011KT 03/M01 A303 RMK A01 T00331011  RH  073%=      5-min Rain = 0
KEN1 151306Z 20010KT 03/M01 A303 RMK A01 T00341011  RH  072%=      5-min Rain = 0
KEN1 151307Z 20010KT 04/M01 A303 RMK A01 T00351011  RH  072%=      5-min Rain = 0
KEN1 151308Z 20011KT 04/M01 A303 RMK A01 T00351012  RH  072%=      5-min Rain = 0
KEN1 151309Z 21009KT 04/M01 A303 RMK A01 T00351012  RH  071%=      5-min Rain = 0
KEN1 151310Z 20010KT 04/M01 A303 RMK A01 T00351012  RH  071%=      5-min Rain = 0
KEN1 151311Z 20009KT 03/M01 A303 RMK A01 T00341012  RH  072%=      5-min Rain = 0
KEN1 151312Z 20008KT 03/M01 A303 RMK A01 T00331013  RH  072%=      5-min Rain = 0
KEN1 151313Z 21009KT 03/M01 A303 RMK A01 T00321013  RH  072%=      5-min Rain = 0
KEN1 151314Z 20008KT 03/M01 A303 RMK A01 T00321013  RH  072%=      5-min Rain = 0
KEN1 151315Z 20008KT 03/M01 A303 RMK A01 T00321014  RH  072%=      5-min Rain = 0
KEN1 151316Z 20008KT 03/M01 A303 RMK A01 T00321014  RH  072%=      5-min Rain = 0
KEN1 151317Z 20008KT 03/M02 A303 RMK A01 T00311015  RH  072%=      5-min Rain = 0
KEN1 151318Z 20008KT 03/M02 A303 RMK A01 T00301015  RH  072%=      5-min Rain = 0
KEN1 151319Z 20008KT 03/M02 A303 RMK A01 T00301015  RH  072%=      5-min Rain = 0
KEN1 151320Z 20009KT 03/M01 A303 RMK A01 T00311014  RH  072%=      5-min Rain = 0
KEN1 151321Z 20008KT 03/M01 A303 RMK A01 T00311014  RH  072%=      5-min Rain = 0
KEN1 151322Z 20009KT 03/M01 A303 RMK A01 T00311014  RH  072%=      5-min Rain = 0
KEN1 151323Z 20009KT 03/M01 A303 RMK A01 T00311014  RH  073%=      5-min Rain = 0
KEN1 151324Z 20009KT 03/M01 A303 RMK A01 T00311014  RH  072%=      5-min Rain = 0
KEN1 151325Z 20009KT 03/M01 A303 RMK A01 T00321014  RH  072%=      5-min Rain = 0
KEN1 151326Z 20010KT 03/M01 A303 RMK A01 T00331013  RH  072%=      5-min Rain = 0
KEN1 151327Z 20010KT 03/M01 A303 RMK A01 T00341013  RH  071%=      5-min Rain = 0
KEN1 151328Z 20011KT 04/M01 A303 RMK A01 T00351013  RH  071%=      5-min Rain = 0
KEN1 151329Z 20012KT 04/M01 A303 RMK A01 T00361013  RH  071%=      5-min Rain = 0
KEN1 151330Z 21012KT 04/M01 A303 RMK A01 T00371012  RH  070%=      5-min Rain = 0
KEN1 151331Z 21011KT 04/M01 A303 RMK A01 T00391012  RH  069%=      5-min Rain = 0
KEN1 151332Z 20011KT 04/M01 A303 RMK A01 T00391012  RH  069%=      5-min Rain = 0
KEN1 151333Z 21012KT 04/M01 A303 RMK A01 T00391013  RH  069%=      5-min Rain = 0
KEN1 151334Z 21013G18KT 04/M01 A303 RMK A01 T00391012  RH  069%=      5-min Rain = 0
KEN1 151335Z 20013KT 04/M01 A303 RMK A01 T00391013  RH  069%=      5-min Rain = 0
KEN1 151336Z 21012KT 04/M01 A303 RMK A01 T00401013  RH  069%=      5-min Rain = 0
KEN1 151337Z 21012KT 04/M01 A303 RMK A01 T00401013  RH  068%=      5-min Rain = 0
KEN1 151338Z 21014KT 04/M01 A303 RMK A01 T00401013  RH  068%=      5-min Rain = 0
KEN1 151339Z 21013KT 04/M01 A303 RMK A01 T00411013  RH  068%=      5-min Rain = 0
KEN1 151340Z 21013KT 04/M01 A303 RMK A01 T00411013  RH  068%=      5-min Rain = 0
KEN1 151341Z 21012KT 04/M01 A303 RMK A01 T00411013  RH  068%=      5-min Rain = 0
KEN1 151342Z 21012KT 04/M01 A303 RMK A01 T00411013  RH  068%=      5-min Rain = 0
KEN1 151343Z 21012KT 04/M01 A303 RMK A01 T00411014  RH  068%=      5-min Rain = 0
KEN1 151344Z 21012KT 04/M01 A303 RMK A01 T00411014  RH  067%=      5-min Rain = 0
KEN1 151345Z 21012KT 04/M01 A303 RMK A01 T00411013  RH  068%=      5-min Rain = 0
KEN1 151346Z 21014KT 04/M01 A303 RMK A01 T00411013  RH  068%=      5-min Rain = 0
KEN1 151347Z 21012KT 04/M01 A303 RMK A01 T00411013  RH  068%=      5-min Rain = 0
KEN1 151348Z 21014KT 04/M01 A303 RMK A01 T00421013  RH  067%=      5-min Rain = 0
KEN1 151349Z 22013KT 04/M01 A303 RMK A01 T00431014  RH  067%=      5-min Rain = 0
KEN1 151350Z 21011KT 04/M01 A303 RMK A01 T00431014  RH  067%=      5-min Rain = 0
KEN1 151351Z 21013KT 04/M01 A303 RMK A01 T00431013  RH  067%=      5-min Rain = 0
KEN1 151352Z 21014G19KT 04/M01 A303 RMK A01 T00431014  RH  067%=      5-min Rain = 0
KEN1 151353Z 21014KT 04/M01 A303 RMK A01 T00441013  RH  066%=      5-min Rain = 0
KEN1 151354Z 21013KT 04/M01 A303 RMK A01 T00441013  RH  066%=      5-min Rain = 0
KEN1 151355Z 21014KT 05/M01 A303 RMK A01 T00451013  RH  066%=      5-min Rain = 0
KEN1 151356Z 22012KT 05/M01 A303 RMK A01 T00451013  RH  066%=      5-min Rain = 0
KEN1 151357Z 21012KT 05/M01 A303 RMK A01 T00451013  RH  066%=      5-min Rain = 0
KEN1 151358Z 22011KT 05/M01 A303 RMK A01 T00451013  RH  066%=      5-min Rain = 0
KEN1 151359Z 21015KT 05/M01 A303 RMK A01 T00451013  RH  066%=      5-min Rain = 0
KEN1 151400Z 22013KT 05/M01 A303 RMK A01 T00451013  RH  066%=      5-min Rain = 0
KEN1 151401Z 22014KT 05/M01 A303 RMK A01 T00471013  RH  065%=      5-min Rain = 0
KEN1 151402Z 22013KT 05/M01 A303 RMK A01 T00461013  RH  065%=      5-min Rain = 0
KEN1 151403Z 21011KT 05/M01 A303 RMK A01 T00471013  RH  065%=      5-min Rain = 0
KEN1 151404Z 22012KT 05/M01 A303 RMK A01 T00471013  RH  065%=      5-min Rain = 0
KEN1 151405Z 22013KT 05/M01 A303 RMK A01 T00471013  RH  065%=      5-min Rain = 0
KEN1 151406Z 22012KT 05/M01 A303 RMK A01 T00461013  RH  065%=      5-min Rain = 0
KEN1 151407Z 21013KT 05/M01 A303 RMK A01 T00461013  RH  065%=      5-min Rain = 0
KEN1 151408Z 22011KT 05/M01 A303 RMK A01 T00471013  RH  065%=      5-min Rain = 0
KEN1 151409Z 22011KT 05/M01 A303 RMK A01 T00461013  RH  065%=      5-min Rain = 0
KEN1 151410Z 22014KT 05/M01 A303 RMK A01 T00471013  RH  065%=      5-min Rain = 0
KEN1 151411Z 22011KT 05/M01 A303 RMK A01 T00481013  RH  065%=      5-min Rain = 0
KEN1 151412Z 22012KT 05/M01 A303 RMK A01 T00481012  RH  065%=      5-min Rain = 0
KEN1 151413Z 22013KT 05/M01 A303 RMK A01 T00481013  RH  065%=      5-min Rain = 0
KEN1 151414Z 22014KT 05/M01 A303 RMK A01 T00481013  RH  065%=      5-min Rain = 0
KEN1 151415Z 22012KT 05/M01 A303 RMK A01 T00491013  RH  064%=      5-min Rain = 0
KEN1 151416Z 22012KT 05/M01 A303 RMK A01 T00491012  RH  064%=      5-min Rain = 0
KEN1 151417Z 22013KT 05/M01 A303 RMK A01 T00501012  RH  064%=      5-min Rain = 0
KEN1 151418Z 22012KT 05/M01 A303 RMK A01 T00501013  RH  064%=      5-min Rain = 0
KEN1 151419Z 22012KT 05/M01 A303 RMK A01 T00511012  RH  063%=      5-min Rain = 0
KEN1 151420Z 22012KT 05/M01 A303 RMK A01 T00521012  RH  063%=      5-min Rain = 0
KEN1 151421Z 22012KT 05/M01 A303 RMK A01 T00521012  RH  063%=      5-min Rain = 0
KEN1 151422Z 21012KT 05/M01 A303 RMK A01 T00531012  RH  063%=      5-min Rain = 0
KEN1 151423Z 21010KT 05/M01 A303 RMK A01 T00541012  RH  063%=      5-min Rain = 0
KEN1 151424Z 21010KT 05/M01 A3031 RMK A01 T00541012  RH  062%=      5-min Rain = 0
KEN1 151425Z 21011KT 06/M01 A303 RMK A01 T00551012  RH  062%=      5-min Rain = 0
KEN1 151426Z 21011KT 06/M01 A3031 RMK A01 T00551012  RH  062%=      5-min Rain = 0
KEN1 151427Z 22012KT 06/M01 A3031 RMK A01 T00561012  RH  062%=      5-min Rain = 0
KEN1 151428Z 21010KT 06/M01 A3031 RMK A01 T00561012  RH  062%=      5-min Rain = 0
KEN1 151429Z 21011KT 06/M01 A3031 RMK A01 T00571011  RH  061%=      5-min Rain = 0
KEN1 151430Z 20009KT 06/M01 A3031 RMK A01 T00571011  RH  061%=      5-min Rain = 0
KEN1 151431Z 21009KT 06/M01 A3031 RMK A01 T00581011  RH  061%=      5-min Rain = 0
KEN1 151432Z 21009KT 06/M01 A3031 RMK A01 T00581011  RH  061%=      5-min Rain = 0
KEN1 151433Z 21010KT 06/M01 A3031 RMK A01 T00591011  RH  061%=      5-min Rain = 0
KEN1 151434Z 21010KT 06/M01 A3031 RMK A01 T00591011  RH  061%=      5-min Rain = 0
KEN1 151435Z 21008KT 06/M01 A3031 RMK A01 T00601010  RH  061%=      5-min Rain = 0
KEN1 151436Z 21009KT 06/M01 A303 RMK A01 T00611009  RH  061%=      5-min Rain = 0
KEN1 151437Z 21007KT 06/M01 A303 RMK A01 T00621009  RH  060%=      5-min Rain = 0
KEN1 151438Z 21011KT 06/M01 A303 RMK A01 T00621009  RH  060%=      5-min Rain = 0
KEN1 151439Z 21009KT 06/M01 A3031 RMK A01 T00631009  RH  060%=      5-min Rain = 0
KEN1 151440Z 21010KT 06/M01 A303 RMK A01 T00641009  RH  060%=      5-min Rain = 0
KEN1 151441Z 21010KT 06/M01 A303 RMK A01 T00641009  RH  059%=      5-min Rain = 0
KEN1 151442Z 21009KT 06/M01 A303 RMK A01 T00641009  RH  059%=      5-min Rain = 0
KEN1 151443Z 21013KT 07/M01 A303 RMK A01 T00651009  RH  059%=      5-min Rain = 0
KEN1 151444Z 21011KT 07/M01 A303 RMK A01 T00651010  RH  059%=      5-min Rain = 0
KEN1 151445Z 21012KT 07/M01 A303 RMK A01 T00661009  RH  059%=      5-min Rain = 0
KEN1 151446Z 22011KT 07/M01 A303 RMK A01 T00661009  RH  058%=      5-min Rain = 0
KEN1 151447Z 22011KT 07/M01 A303 RMK A01 T00671009  RH  058%=      5-min Rain = 0
KEN1 151448Z 22012KT 07/M01 A303 RMK A01 T00681008  RH  058%=      5-min Rain = 0
KEN1 151449Z 23012KT 07/M01 A303 RMK A01 T00681009  RH  058%=      5-min Rain = 0
KEN1 151450Z 22011KT 07/M01 A303 RMK A01 T00691009  RH  058%=      5-min Rain = 0
KEN1 151451Z 22011KT 07/M01 A303 RMK A01 T00691008  RH  058%=      5-min Rain = 0
KEN1 151452Z 22013KT 07/M01 A303 RMK A01 T00701008  RH  057%=      5-min Rain = 0
KEN1 151453Z 22013KT 07/M01 A303 RMK A01 T00701009  RH  057%=      5-min Rain = 0
KEN1 151454Z 22012KT 07/M01 A303 RMK A01 T00701009  RH  057%=      5-min Rain = 0
KEN1 151455Z 22014KT 07/M01 A303 RMK A01 T00701009  RH  057%=      5-min Rain = 0
KEN1 151456Z 22011G16KT 07/M01 A303 RMK A01 T00711009  RH  057%=      5-min Rain = 0
KEN1 151457Z 22012KT 07/M01 A303 RMK A01 T00711008  RH  057%=      5-min Rain = 0
KEN1 151458Z 22012KT 07/M01 A303 RMK A01 T00721008  RH  057%=      5-min Rain = 0
KEN1 151459Z 22013KT 07/M01 A303 RMK A01 T00731008  RH  056%=      5-min Rain = 0
KEN1 151500Z 22012KT 07/M01 A303 RMK A01 T00731008  RH  056%=      5-min Rain = 0
KEN1 151501Z 22013G18KT 07/M01 A303 RMK A01 T00731008  RH  056%=      5-min Rain = 0
KEN1 151502Z 21015KT 07/M01 A303 RMK A01 T00731009  RH  056%=      5-min Rain = 0
KEN1 151503Z 22014KT 07/M01 A303 RMK A01 T00731008  RH  056%=      5-min Rain = 0
KEN1 151504Z 21016KT 07/M01 A303 RMK A01 T00741009  RH  056%=      5-min Rain = 0
KEN1 151505Z 22013KT 07/M01 A303 RMK A01 T00741009  RH  056%=      5-min Rain = 0
KEN1 151506Z 22014KT 07/M01 A303 RMK A01 T00741009  RH  056%=      5-min Rain = 0
KEN1 151507Z 22014G19KT 07/M01 A303 RMK A01 T00741009  RH  055%=      5-min Rain = 0
KEN1 151508Z 22018KT 08/M01 A303 RMK A01 T00751009  RH  055%=      5-min Rain = 0
KEN1 151509Z 22016KT 07/M01 A303 RMK A01 T00741010  RH  055%=      5-min Rain = 0
KEN1 151510Z 22014KT 08/M01 A303 RMK A01 T00751008  RH  055%=      5-min Rain = 0
KEN1 151511Z 22015KT 08/M01 A303 RMK A01 T00771008  RH  055%=      5-min Rain = 0
KEN1 151512Z 22016KT 08/M01 A303 RMK A01 T00771008  RH  055%=      5-min Rain = 0
KEN1 151513Z 22016KT 08/M01 A303 RMK A01 T00771009  RH  055%=      5-min Rain = 0
KEN1 151514Z 22016KT 08/M01 A303 RMK A01 T00771009  RH  055%=      5-min Rain = 0
KEN1 151515Z 22016KT 08/M01 A303 RMK A01 T00771008  RH  054%=      5-min Rain = 0
KEN1 151516Z 22015KT 08/M01 A303 RMK A01 T00781008  RH  054%=      5-min Rain = 0
KEN1 151517Z 23017KT 08/M01 A303 RMK A01 T00791008  RH  054%=      5-min Rain = 0
KEN1 151518Z 22017KT 08/M01 A303 RMK A01 T00791008  RH  054%=      5-min Rain = 0
KEN1 151519Z 22018KT 08/M01 A303 RMK A01 T00791008  RH  054%=      5-min Rain = 0
KEN1 151520Z 22017KT 08/M01 A303 RMK A01 T00791009  RH  054%=      5-min Rain = 0
KEN1 151521Z 22014KT 08/M01 A303 RMK A01 T00791008  RH  054%=      5-min Rain = 0
KEN1 151522Z 22016KT 08/M01 A303 RMK A01 T00801008  RH  054%=      5-min Rain = 0
KEN1 151523Z 22015KT 08/M01 A303 RMK A01 T00801008  RH  053%=      5-min Rain = 0
KEN1 151524Z 22014KT 08/M01 A303 RMK A01 T00811008  RH  053%=      5-min Rain = 0
KEN1 151525Z 22012KT 08/M01 A303 RMK A01 T00821007  RH  053%=      5-min Rain = 0
KEN1 151526Z 22016KT 08/M01 A303 RMK A01 T00841006  RH  053%=      5-min Rain = 0
KEN1 151527Z 22017KT 09/M01 A303 RMK A01 T00851008  RH  052%=      5-min Rain = 0
KEN1 151528Z 22017KT 09/M01 A303 RMK A01 T00851008  RH  052%=      5-min Rain = 0
KEN1 151529Z 22016KT 08/M01 A303 RMK A01 T00841008  RH  052%=      5-min Rain = 0
KEN1 151530Z 22014KT 08/M01 A303 RMK A01 T00841008  RH  052%=      5-min Rain = 0
KEN1 151531Z 22015KT 09/M01 A303 RMK A01 T00851007  RH  052%=      5-min Rain = 0
KEN1 151532Z 22014KT 09/M01 A303 RMK A01 T00861008  RH  052%=      5-min Rain = 0
KEN1 151533Z 23017KT 09/M01 A303 RMK A01 T00871008  RH  051%=      5-min Rain = 0
KEN1 151534Z 22015KT 09/M01 A303 RMK A01 T00871008  RH  051%=      5-min Rain = 0
KEN1 151535Z 23015KT 09/M01 A303 RMK A01 T00871008  RH  051%=      5-min Rain = 0
KEN1 151536Z 23014G19KT 09/M01 A303 RMK A01 T00881008  RH  051%=      5-min Rain = 0
KEN1 151537Z 22016KT 09/M01 A303 RMK A01 T00891008  RH  051%=      5-min Rain = 0
KEN1 151538Z 22014KT 09/M01 A303 RMK A01 T00891009  RH  050%=      5-min Rain = 0
KEN1 151539Z 22015KT 09/M01 A303 RMK A01 T00901007  RH  050%=      5-min Rain = 0
KEN1 151540Z 22014KT 09/M01 A303 RMK A01 T00911008  RH  050%=      5-min Rain = 0
KEN1 151541Z 21016KT 09/M01 A303 RMK A01 T00911008  RH  050%=      5-min Rain = 0
KEN1 151542Z 22015KT 09/M01 A303 RMK A01 T00921009  RH  049%=      5-min Rain = 0
KEN1 151543Z 22015KT 09/M01 A303 RMK A01 T00921009  RH  049%=      5-min Rain = 0
KEN1 151544Z 21016KT 09/M01 A303 RMK A01 T00921010  RH  049%=      5-min Rain = 0
KEN1 151545Z 22014KT 09/M01 A303 RMK A01 T00921009  RH  049%=      5-min Rain = 0
KEN1 151546Z 22013KT 09/M01 A303 RMK A01 T00931008  RH  049%=      5-min Rain = 0
KEN1 151547Z 22016KT 10/M01 A303 RMK A01 T00951008  RH  049%=      5-min Rain = 0
KEN1 151548Z 22015KT 10/M01 A303 RMK A01 T00951009  RH  048%=      5-min Rain = 0
KEN1 151549Z 22017KT 10/M01 A303 RMK A01 T00951010  RH  048%=      5-min Rain = 0
KEN1 151550Z 22017KT 10/M01 A303 RMK A01 T00951010  RH  048%=      5-min Rain = 0
KEN1 151551Z 22015KT 10/M01 A303 RMK A01 T00961010  RH  048%=      5-min Rain = 0
KEN1 151552Z 22013KT 10/M01 A303 RMK A01 T00981008  RH  048%=      5-min Rain = 0
KEN1 151553Z 23013KT 10/M01 A303 RMK A01 T01011008  RH  047%=      5-min Rain = 0
KEN1 151554Z 23014KT 10/M01 A303 RMK A01 T01021008  RH  046%=      5-min Rain = 0
KEN1 151555Z 23015KT 10/M01 A303 RMK A01 T01031010  RH  046%=      5-min Rain = 0
KEN1 151556Z 22014KT 10/M01 A303 RMK A01 T01021010  RH  046%=      5-min Rain = 0
KEN1 151557Z 22015KT 10/M01 A303 RMK A01 T01011011  RH  046%=      5-min Rain = 0
KEN1 151558Z 22014KT 10/M01 A303 RMK A01 T01001011  RH  046%=      5-min Rain = 0
KEN1 151559Z 22013KT 10/M01 A303 RMK A01 T01011010  RH  046%=      5-min Rain = 0
KEN1 151600Z 22012KT 10/M01 A303 RMK A01 T01011010  RH  046%=      5-min Rain = 0
KEN1 151601Z 22015KT 10/M01 A303 RMK A01 T01021011  RH  045%=      5-min Rain = 0
KEN1 151602Z 21013G18KT 10/M01 A303 RMK A01 T01031012  RH  045%=      5-min Rain = 0
KEN1 151603Z 21014KT 10/M01 A303 RMK A01 T01031012  RH  045%=      5-min Rain = 0
KEN1 151604Z 22014KT 10/M01 A303 RMK A01 T01041012  RH  045%=      5-min Rain = 0
KEN1 151605Z 21014KT 10/M01 A303 RMK A01 T01041012  RH  044%=      5-min Rain = 0
KEN1 151606Z 22016KT 10/M01 A303 RMK A01 T01041013  RH  044%=      5-min Rain = 0
KEN1 151607Z 22016KT 10/M01 A303 RMK A01 T01041013  RH  044%=      5-min Rain = 0
KEN1 151608Z 22018KT 11/M01 A303 RMK A01 T01051014  RH  044%=      5-min Rain = 0
KEN1 151609Z 22016KT 11/M02 A303 RMK A01 T01051015  RH  043%=      5-min Rain = 0
KEN1 151610Z 22018KT 11/M01 A303 RMK A01 T01051014  RH  044%=      5-min Rain = 0
KEN1 151611Z 23014KT 11/M01 A303 RMK A01 T01051013  RH  044%=      5-min Rain = 0
KEN1 151612Z 23014KT 11/M01 A303 RMK A01 T01071012  RH  044%=      5-min Rain = 0
KEN1 151613Z 23014KT 11/M01 A303 RMK A01 T01091011  RH  043%=      5-min Rain = 0
KEN1 151614Z 21017KT 11/M01 A3029 RMK A01 T01091011  RH  043%=      5-min Rain = 0
KEN1 151615Z 21018KT 11/M01 A3029 RMK A01 T01081014  RH  043%=      5-min Rain = 0
KEN1 151616Z 21020KT 11/M02 A3029 RMK A01 T01061015  RH  043%=      5-min Rain = 0
KEN1 151617Z 21019KT 11/M02 A3029 RMK A01 T01061015  RH  043%=      5-min Rain = 0
KEN1 151618Z 21017KT 11/M01 A3029 RMK A01 T01061014  RH  043%=      5-min Rain = 0
KEN1 151619Z 21019KT 11/M01 A3029 RMK A01 T01061013  RH  043%=      5-min Rain = 0
KEN1 151620Z 21018KT 11/M01 A3029 RMK A01 T01071013  RH  043%=      5-min Rain = 0
KEN1 151621Z 21016KT 11/M01 A3029 RMK A01 T01071014  RH  043%=      5-min Rain = 0
KEN1 151622Z 21017KT 11/M01 A3029 RMK A01 T01081012  RH  043%=      5-min Rain = 0
KEN1 151623Z 22015KT 11/M01 A3029 RMK A01 T01101012  RH  043%=      5-min Rain = 0
KEN1 151624Z 21017KT 11/M01 A3029 RMK A01 T01111013  RH  042%=      5-min Rain = 0
KEN1 151625Z 21018KT 11/M01 A3029 RMK A01 T01111014  RH  042%=      5-min Rain = 0
KEN1 151626Z 22017KT 11/M02 A3029 RMK A01 T01091015  RH  042%=      5-min Rain = 0
KEN1 151627Z 21014KT 11/M01 A3029 RMK A01 T01111013  RH  042%=      5-min Rain = 0
KEN1 151628Z 21015KT 11/M01 A3029 RMK A01 T01131013  RH  042%=      5-min Rain = 0
KEN1 151629Z 21013KT 11/M01 A3029 RMK A01 T01121013  RH  042%=      5-min Rain = 0
KEN1 151630Z 21014G19KT 11/M01 A3029 RMK A01 T01141011  RH  042%=      5-min Rain = 0
KEN1 151631Z 21014KT 12/M01 A3029 RMK A01 T01161012  RH  041%=      5-min Rain = 0
KEN1 151632Z 21015KT 12/M01 A3029 RMK A01 T01161013  RH  041%=      5-min Rain = 0
KEN1 151633Z 21015KT 12/M01 A3029 RMK A01 T01161012  RH  041%=      5-min Rain = 0
KEN1 151634Z 20016KT 12/M01 A3029 RMK A01 T01171012  RH  041%=      5-min Rain = 0
KEN1 151635Z 20017KT 12/M01 A3029 RMK A01 T01171014  RH  040%=      5-min Rain = 0
KEN1 151636Z 21017KT 12/M01 A3029 RMK A01 T01171014  RH  040%=      5-min Rain = 0
KEN1 151637Z 21015KT 12/M01 A3029 RMK A01 T01161013  RH  041%=      5-min Rain = 0
KEN1 151638Z 21019KT 12/M01 A3029 RMK A01 T01181013  RH  040%=      5-min Rain = 0
KEN1 151639Z 22019KT 12/M02 A3029 RMK A01 T01191015  RH  039%=      5-min Rain = 0
KEN1 151640Z 22019KT 12/M02 A3029 RMK A01 T01181015  RH  039%=      5-min Rain = 0
KEN1 151641Z 22019KT 12/M02 A3029 RMK A01 T01181017  RH  039%=      5-min Rain = 0
KEN1 151642Z 21019KT 12/M02 A3029 RMK A01 T01171017  RH  039%=      5-min Rain = 0
KEN1 151643Z 21018KT 12/M02 A3029 RMK A01 T01171017  RH  039%=      5-min Rain = 0
KEN1 151644Z 21018KT 12/M02 A3029 RMK A01 T01191016  RH  039%=      5-min Rain = 0
KEN1 151645Z 21017KT 12/M02 A3029 RMK A01 T01191018  RH  039%=      5-min Rain = 0
KEN1 151646Z 22018KT 12/M02 A3029 RMK A01 T01201017  RH  039%=      5-min Rain = 0
KEN1 151647Z 22018KT 12/M02 A3029 RMK A01 T01211016  RH  038%=      5-min Rain = 0
KEN1 151648Z 22018KT 12/M02 A3029 RMK A01 T01221017  RH  038%=      5-min Rain = 0
KEN1 151649Z 22017KT 12/M02 A3029 RMK A01 T01221017  RH  038%=      5-min Rain = 0
KEN1 151650Z 22017KT 12/M02 A3029 RMK A01 T01221018  RH  038%=      5-min Rain = 0
KEN1 151651Z 22016KT 12/M02 A3029 RMK A01 T01221017  RH  038%=      5-min Rain = 0
KEN1 151652Z 22018KT 12/M02 A3029 RMK A01 T01241017  RH  038%=      5-min Rain = 0
KEN1 151653Z 21017KT 12/M02 A3028 RMK A01 T01241018  RH  037%=      5-min Rain = 0
KEN1 151654Z 21020KT 13/M02 A3028 RMK A01 T01251019  RH  037%=      5-min Rain = 0
KEN1 151655Z 22018KT 13/M02 A3028 RMK A01 T01251020  RH  036%=      5-min Rain = 0
KEN1 151656Z 21018G23KT 13/M02 A3028 RMK A01 T01251021  RH  036%=      5-min Rain = 0
KEN1 151657Z 21019KT 12/M02 A3028 RMK A01 T01241020  RH  036%=      5-min Rain = 0
KEN1 151658Z 21019KT 12/M02 A3028 RMK A01 T01241020  RH  037%=      5-min Rain = 0
KEN1 151659Z 22020KT 12/M02 A3028 RMK A01 T01241020  RH  037%=      5-min Rain = 0
KEN1 151700Z 22019KT 13/M02 A3028 RMK A01 T01251021  RH  036%=      5-min Rain = 0
KEN1 151701Z 22021KT 13/M02 A3028 RMK A01 T01261020  RH  036%=      5-min Rain = 0
KEN1 151702Z 22021KT 13/M02 A3028 RMK A01 T01271022  RH  036%=      5-min Rain = 0
KEN1 151703Z 22019KT 13/M02 A3028 RMK A01 T01261021  RH  036%=      5-min Rain = 0
KEN1 151704Z 22016G21KT 13/M02 A3028 RMK A01 T01261019  RH  036%=      5-min Rain = 0
KEN1 151705Z 22016G21KT 13/M02 A3028 RMK A01 T01291017  RH  036%=      5-min Rain = 0
KEN1 151706Z 22017KT 13/M02 A3028 RMK A01 T01301018  RH  036%=      5-min Rain = 0
KEN1 151707Z 23016KT 13/M02 A3028 RMK A01 T01321018  RH  036%=      5-min Rain = 0
KEN1 151708Z 22017KT 13/M02 A3028 RMK A01 T01321017  RH  035%=      5-min Rain = 0
KEN1 151709Z 21018KT 13/M02 A3028 RMK A01 T01321019  RH  035%=      5-min Rain = 0
KEN1 151710Z 22015KT 13/M02 A3028 RMK A01 T01321018  RH  035%=      5-min Rain = 0
KEN1 151711Z 22015KT 13/M02 A3028 RMK A01 T01341016  RH  035%=      5-min Rain = 0
KEN1 151712Z 23018KT 14/M02 A3028 RMK A01 T01361018  RH  034%=      5-min Rain = 0
KEN1 151713Z 22014G20KT 14/M02 A3028 RMK A01 T01351020  RH  034%=      5-min Rain = 0
KEN1 151714Z 23019KT 14/M02 A3028 RMK A01 T01361019  RH  034%=      5-min Rain = 0
KEN1 151715Z 23016KT 14/M02 A3028 RMK A01 T01351021  RH  034%=      5-min Rain = 0
KEN1 151716Z 23017KT 13/M02 A3028 RMK A01 T01341019  RH  034%=      5-min Rain = 0
KEN1 151717Z 23016KT 14/M02 A3028 RMK A01 T01351019  RH  034%=      5-min Rain = 0
KEN1 151718Z 22018KT 14/M02 A3028 RMK A01 T01361020  RH  034%=      5-min Rain = 0
KEN1 151719Z 22018KT 14/M02 A3028 RMK A01 T01351021  RH  034%=      5-min Rain = 0
KEN1 151720Z 22019G24KT 13/M02 A3028 RMK A01 T01341021  RH  034%=      5-min Rain = 0
KEN1 151721Z 23019KT 14/M02 A3028 RMK A01 T01351022  RH  034%=      5-min Rain = 0
KEN1 151722Z 22016KT 14/M02 A3028 RMK A01 T01351020  RH  034%=      5-min Rain = 0
KEN1 151723Z 22017KT 14/M02 A3028 RMK A01 T01381020  RH  034%=      5-min Rain = 0
KEN1 151724Z 22017KT 14/M02 A3028 RMK A01 T01381020  RH  033%=      5-min Rain = 0
KEN1 151725Z 22018KT 14/M02 A3028 RMK A01 T01381020  RH  033%=      5-min Rain = 0
KEN1 151726Z 21020KT 14/M02 A3028 RMK A01 T01371022  RH  033%=      5-min Rain = 0
KEN1 151727Z 22013KT 14/M02 A3028 RMK A01 T01381021  RH  033%=      5-min Rain = 0
KEN1 151728Z 21016KT 14/M02 A3028 RMK A01 T01411018  RH  033%=      5-min Rain = 0
KEN1 151729Z 22017KT 14/M02 A3027 RMK A01 T01421020  RH  033%=      5-min Rain = 0
KEN1 151730Z 22016KT 14/M02 A3028 RMK A01 T01421020  RH  033%=      5-min Rain = 0
KEN1 151731Z 23019KT 14/M02 A3028 RMK A01 T01421021  RH  032%=      5-min Rain = 0
KEN1 151732Z 23018KT 14/M02 A3028 RMK A01 T01391023  RH  033%=      5-min Rain = 0
KEN1 151733Z 23018KT 14/M02 A3028 RMK A01 T01371021  RH  033%=      5-min Rain = 0
KEN1 151734Z 23016KT 14/M02 A3027 RMK A01 T01361021  RH  034%=      5-min Rain = 0
KEN1 151735Z 23017KT 14/M02 A3027 RMK A01 T01371018  RH  034%=      5-min Rain = 0
KEN1 151736Z 23018KT 14/M02 A3027 RMK A01 T01381019  RH  034%=      5-min Rain = 0
KEN1 151737Z 22017KT 14/M02 A3027 RMK A01 T01391020  RH  033%=      5-min Rain = 0
KEN1 151738Z 22019KT 14/M02 A3027 RMK A01 T01391020  RH  033%=      5-min Rain = 0
KEN1 151739Z 22017KT 14/M02 A3027 RMK A01 T01391021  RH  033%=      5-min Rain = 0
KEN1 151740Z 23017KT 14/M02 A3027 RMK A01 T01411020  RH  033%=      5-min Rain = 0
KEN1 151741Z 22017KT 14/M02 A3027 RMK A01 T01411020  RH  033%=      5-min Rain = 0
KEN1 151742Z 21016KT 14/M02 A3027 RMK A01 T01421019  RH  033%=      5-min Rain = 0
KEN1 151743Z 21018KT 14/M02 A3027 RMK A01 T01431018  RH  033%=      5-min Rain = 0
KEN1 151744Z 21018KT 14/M02 A3027 RMK A01 T01431020  RH  032%=      5-min Rain = 0
KEN1 151745Z 22016KT 14/M02 A3027 RMK A01 T01421019  RH  033%=      5-min Rain = 0
KEN1 151746Z 21015KT 14/M02 A3027 RMK A01 T01431018  RH  033%=      5-min Rain = 0
KEN1 151747Z 22014G20KT 14/M02 A3027 RMK A01 T01441018  RH  033%=      5-min Rain = 0
KEN1 151748Z 21016KT 15/M02 A3027 RMK A01 T01461019  RH  032%=      5-min Rain = 0
KEN1 151749Z 21018KT 15/M02 A3027 RMK A01 T01461019  RH  032%=      5-min Rain = 0
KEN1 151750Z 21017KT 15/M02 A3026 RMK A01 T01471019  RH  032%=      5-min Rain = 0
KEN1 151751Z 22017KT 15/M02 A3026 RMK A01 T01471018  RH  032%=      5-min Rain = 0
KEN1 151752Z 22018KT 15/M02 A3026 RMK A01 T01481019  RH  032%=      5-min Rain = 0
KEN1 151753Z 22018KT 15/M02 A3026 RMK A01 T01471020  RH  032%=      5-min Rain = 0
KEN1 151754Z 22019KT 15/M02 A3026 RMK A01 T01451020  RH  032%=      5-min Rain = 0
KEN1 151755Z 22016KT 15/M02 A3026 RMK A01 T01451021  RH  032%=      5-min Rain = 0
KEN1 151756Z 22017KT 15/M02 A3026 RMK A01 T01471020  RH  032%=      5-min Rain = 0
KEN1 151757Z 23013G18KT 15/M02 A3026 RMK A01 T01491018  RH  032%=      5-min Rain = 0
KEN1 151758Z 22020KT 15/M02 A3026 RMK A01 T01521018  RH  031%=      5-min Rain = 0
KEN1 151759Z 22016KT 15/M02 A3026 RMK A01 T01511020  RH  031%=      5-min Rain = 0
KEN1 151800Z 22016KT 15/M02 A3026 RMK A01 T01501019  RH  031%=      5-min Rain = 0
KEN1 151801Z 22015KT 15/M02 A3026 RMK A01 T01511020  RH  031%=      5-min Rain = 0
KEN1 151802Z 22016G21KT 15/M02 A3026 RMK A01 T01521018  RH  031%=      5-min Rain = 0
KEN1 151803Z 21018KT 15/M02 A3026 RMK A01 T01531020  RH  031%=      5-min Rain = 0
KEN1 151804Z 21018KT 15/M02 A3026 RMK A01 T01521020  RH  031%=      5-min Rain = 0
KEN1 151805Z 21017KT 15/M02 A3026 RMK A01 T01521020  RH  031%=      5-min Rain = 0
KEN1 151806Z 21020KT 15/M02 A3026 RMK A01 T01511022  RH  030%=      5-min Rain = 0
KEN1 151807Z 21020KT 15/M02 A3026 RMK A01 T01501023  RH  030%=      5-min Rain = 0
KEN1 151808Z 22021KT 15/M02 A3026 RMK A01 T01501022  RH  030%=      5-min Rain = 0
KEN1 151809Z 21018KT 15/M02 A3025 RMK A01 T01491023  RH  031%=      5-min Rain = 0
KEN1 151810Z 21016KT 15/M02 A3025 RMK A01 T01491022  RH  031%=      5-min Rain = 0
KEN1 151811Z 22017G23KT 15/M02 A3025 RMK A01 T01501021  RH  031%=      5-min Rain = 0
KEN1 151812Z 22018G23KT 15/M02 A3025 RMK A01 T01521021  RH  030%=      5-min Rain = 0
KEN1 151813Z 21019KT 15/M02 A3025 RMK A01 T01521022  RH  030%=      5-min Rain = 0
KEN1 151814Z 21021KT 15/M02 A3025 RMK A01 T01521023  RH  030%=      5-min Rain = 0
KEN1 151815Z 22017KT 15/M02 A3025 RMK A01 T01511023  RH  030%=      5-min Rain = 0
KEN1 151816Z 21018G23KT 15/M02 A3025 RMK A01 T01531021  RH  030%=      5-min Rain = 0
KEN1 151817Z 21019KT 16/M02 A3025 RMK A01 T01551022  RH  030%=      5-min Rain = 0
KEN1 151818Z 22019KT 16/M02 A3025 RMK A01 T01551022  RH  030%=      5-min Rain = 0
KEN1 151819Z 22017KT 16/M02 A3025 RMK A01 T01551022  RH  029%=      5-min Rain = 0
KEN1 151820Z 22013KT 16/M02 A3025 RMK A01 T01561022  RH  029%=      5-min Rain = 0
KEN1 151821Z 22017KT 16/M02 A3025 RMK A01 T01591019  RH  029%=      5-min Rain = 0
KEN1 151822Z 23013KT 16/M02 A3024 RMK A01 T01581022  RH  029%=      5-min Rain = 0
KEN1 151823Z 21016KT 16/M02 A3024 RMK A01 T01591019  RH  029%=      5-min Rain = 0
KEN1 151824Z 21018KT 16/M02 A3024 RMK A01 T01591021  RH  029%=      5-min Rain = 0
KEN1 151825Z 21021KT 16/M02 A3024 RMK A01 T01581021  RH  029%=      5-min Rain = 0
KEN1 151826Z 21016KT 16/M02 A3024 RMK A01 T01581021  RH  029%=      5-min Rain = 0
KEN1 151827Z 22018KT 16/M02 A3024 RMK A01 T01591020  RH  029%=      5-min Rain = 0
KEN1 151828Z 21016KT 16/M02 A3024 RMK A01 T01591022  RH  029%=      5-min Rain = 0
KEN1 151829Z 21017KT 16/M02 A3024 RMK A01 T01601022  RH  029%=      5-min Rain = 0
KEN1 151830Z 21017KT 16/M02 A3024 RMK A01 T01601021  RH  029%=      5-min Rain = 0
KEN1 151831Z 21018KT 16/M02 A3024 RMK A01 T01601022  RH  029%=      5-min Rain = 0
KEN1 151832Z 21017KT 16/M02 A3024 RMK A01 T01591022  RH  029%=      5-min Rain = 0
KEN1 151833Z 21019KT 16/M02 A3023 RMK A01 T01591023  RH  029%=      5-min Rain = 0
KEN1 151834Z 22020KT 16/M02 A3023 RMK A01 T01601024  RH  028%=      5-min Rain = 0
KEN1 151835Z 22019KT 16/M02 A3023 RMK A01 T01591024  RH  029%=      5-min Rain = 0
KEN1 151836Z 23019KT 16/M02 A3023 RMK A01 T01581024  RH  029%=      5-min Rain = 0
KEN1 151837Z 22019KT 16/M02 A3023 RMK A01 T01591024  RH  028%=      5-min Rain = 0
KEN1 151838Z 22018KT 16/M02 A3023 RMK A01 T01601024  RH  028%=      5-min Rain = 0
KEN1 151839Z 21017G22KT 16/M02 A3023 RMK A01 T01621024  RH  028%=      5-min Rain = 0
KEN1 151840Z 23018G23KT 16/M02 A3023 RMK A01 T01641023  RH  028%=      5-min Rain = 0
KEN1 151841Z 23018KT 16/M03 A3023 RMK A01 T01631025  RH  027%=      5-min Rain = 0
KEN1 151842Z 22018KT 16/M03 A3023 RMK A01 T01611025  RH  028%=      5-min Rain = 0
KEN1 151843Z 23016KT 16/M02 A3023 RMK A01 T01621024  RH  028%=      5-min Rain = 0
KEN1 151844Z 22018KT 16/M02 A3023 RMK A01 T01641024  RH  027%=      5-min Rain = 0
KEN1 151845Z 22016KT 16/M03 A3022 RMK A01 T01631025  RH  027%=      5-min Rain = 0
KEN1 151846Z 21016G21KT 16/M03 A3022 RMK A01 T01641026  RH  027%=      5-min Rain = 0
KEN1 151847Z 21022KT 17/M03 A3022 RMK A01 T01651026  RH  027%=      5-min Rain = 0
KEN1 151848Z 22020KT 17/M03 A3022 RMK A01 T01651029  RH  026%=      5-min Rain = 0
KEN1 151849Z 22020KT 16/M03 A3022 RMK A01 T01641030  RH  026%=      5-min Rain = 0
KEN1 151850Z 22019KT 16/M03 A3022 RMK A01 T01641028  RH  027%=      5-min Rain = 0
KEN1 151851Z 22017KT 16/M03 A3022 RMK A01 T01641029  RH  027%=      5-min Rain = 0
KEN1 151852Z 22017KT 16/M03 A3022 RMK A01 T01641028  RH  027%=      5-min Rain = 0
KEN1 151853Z 22020KT 17/M03 A3022 RMK A01 T01671028  RH  026%=      5-min Rain = 0
KEN1 151854Z 23019KT 17/M03 A3022 RMK A01 T01671030  RH  026%=      5-min Rain = 0
KEN1 151855Z 22017KT 17/M03 A3022 RMK A01 T01671030  RH  026%=      5-min Rain = 0
KEN1 151856Z 22016KT 17/M03 A3022 RMK A01 T01701029  RH  025%=      5-min Rain = 0
KEN1 151857Z 22017KT 17/M03 A3022 RMK A01 T01721029  RH  025%=      5-min Rain = 0
KEN1 151858Z 22018KT 17/M03 A3022 RMK A01 T01721029  RH  025%=      5-min Rain = 0
KEN1 151859Z 23015KT 17/M03 A3022 RMK A01 T01711029  RH  025%=      5-min Rain = 0
KEN1 151900Z 23017G22KT 17/M03 A3022 RMK A01 T01701030  RH  025%=      5-min Rain = 0
KEN1 151901Z 21018KT 17/M03 A3022 RMK A01 T01701030  RH  025%=      5-min Rain = 0
KEN1 151902Z 22018KT 17/M03 A3021 RMK A01 T01721030  RH  025%=      5-min Rain = 0
KEN1 151903Z 22019KT 17/M03 A3021 RMK A01 T01721031  RH  025%=      5-min Rain = 0
KEN1 151904Z 22019KT 17/M03 A3021 RMK A01 T01701033  RH  025%=      5-min Rain = 0
KEN1 151905Z 22018G23KT 17/M03 A3021 RMK A01 T01691033  RH  025%=      5-min Rain = 0
KEN1 151906Z 21019KT 17/M03 A3021 RMK A01 T01701033  RH  025%=      5-min Rain = 0
KEN1 151907Z 22020KT 17/M03 A3021 RMK A01 T01701033  RH  025%=      5-min Rain = 0
KEN1 151908Z 21019KT 17/M04 A3021 RMK A01 T01701035  RH  024%=      5-min Rain = 0
KEN1 151909Z 21016KT 17/M03 A3021 RMK A01 T01691033  RH  025%=      5-min Rain = 0
KEN1 151910Z 22018KT 17/M03 A3021 RMK A01 T01721030  RH  025%=      5-min Rain = 0
KEN1 151911Z 23018KT 17/M03 A3021 RMK A01 T01741031  RH  024%=      5-min Rain = 0
KEN1 151912Z 22015KT 17/M03 A3021 RMK A01 T01721032  RH  025%=      5-min Rain = 0
KEN1 151913Z 22017G22KT 17/M03 A302 RMK A01 T01741029  RH  025%=      5-min Rain = 0
KEN1 151914Z 21021KT 18/M03 A302 RMK A01 T01751031  RH  024%=      5-min Rain = 0
KEN1 151915Z 22018KT 18/M03 A302 RMK A01 T01751032  RH  024%=      5-min Rain = 0
KEN1 151916Z 21016KT 18/M03 A3021 RMK A01 T01751031  RH  024%=      5-min Rain = 0
KEN1 151917Z 21017KT 18/M03 A302 RMK A01 T01761031  RH  024%=      5-min Rain = 0
KEN1 151918Z 21017KT 18/M03 A302 RMK A01 T01781029  RH  024%=      5-min Rain = 0
KEN1 151919Z 22018KT 18/M03 A302 RMK A01 T01771030  RH  024%=      5-min Rain = 0
KEN1 151920Z 22018KT 18/M03 A302 RMK A01 T01751030  RH  024%=      5-min Rain = 0
KEN1 151921Z 21018KT 17/M03 A302 RMK A01 T01731032  RH  024%=      5-min Rain = 0
KEN1 151922Z 21016G21KT 17/M03 A302 RMK A01 T01721031  RH  025%=      5-min Rain = 0
KEN1 151923Z 20017KT 17/M03 A302 RMK A01 T01731030  RH  025%=      5-min Rain = 0
KEN1 151924Z 20016G21KT 17/M03 A302 RMK A01 T01741030  RH  025%=      5-min Rain = 0
KEN1 151925Z 20019KT 18/M03 A302 RMK A01 T01761029  RH  025%=      5-min Rain = 0
KEN1 151926Z 20017KT 17/M03 A302 RMK A01 T01731031  RH  025%=      5-min Rain = 0
KEN1 151927Z 21018KT 17/M03 A302 RMK A01 T01731031  RH  025%=      5-min Rain = 0
KEN1 151928Z 21016KT 17/M03 A302 RMK A01 T01731030  RH  025%=      5-min Rain = 0
KEN1 151929Z 21017KT 17/M03 A3019 RMK A01 T01741030  RH  025%=      5-min Rain = 0
KEN1 151930Z 21017KT 18/M03 A3019 RMK A01 T01751029  RH  025%=      5-min Rain = 0
KEN1 151931Z 21017KT 18/M03 A3019 RMK A01 T01771030  RH  024%=      5-min Rain = 0
KEN1 151932Z 21016KT 18/M03 A3019 RMK A01 T01751031  RH  024%=      5-min Rain = 0
KEN1 151933Z 20019KT 18/M03 A3019 RMK A01 T01751030  RH  024%=      5-min Rain = 0
KEN1 151934Z 20020KT 18/M03 A3019 RMK A01 T01751031  RH  024%=      5-min Rain = 0
KEN1 151935Z 21018KT 18/M03 A3019 RMK A01 T01751031  RH  024%=      5-min Rain = 0
KEN1 151936Z 22019KT 18/M03 A3019 RMK A01 T01761031  RH  024%=      5-min Rain = 0
KEN1 151937Z 22018KT 18/M03 A3019 RMK A01 T01761034  RH  024%=      5-min Rain = 0
KEN1 151938Z 21016KT 18/M03 A3019 RMK A01 T01761033  RH  024%=      5-min Rain = 0
KEN1 151939Z 22016KT 18/M03 A3019 RMK A01 T01751033  RH  024%=      5-min Rain = 0
KEN1 151940Z 21016KT 18/M03 A3019 RMK A01 T01771032  RH  024%=      5-min Rain = 0
KEN1 151941Z 21017KT 18/M03 A3019 RMK A01 T01771033  RH  024%=      5-min Rain = 0
KEN1 151942Z 21017KT 18/M03 A3019 RMK A01 T01761034  RH  024%=      5-min Rain = 0
KEN1 151943Z 21018KT 18/M03 A3019 RMK A01 T01751034  RH  024%=      5-min Rain = 0
KEN1 151944Z 21016KT 18/M03 A3018 RMK A01 T01751034  RH  024%=      5-min Rain = 0
KEN1 151945Z 22018KT 17/M03 A3019 RMK A01 T01741034  RH  024%=      5-min Rain = 0
KEN1 151946Z 21015KT 17/M03 A3018 RMK A01 T01741032  RH  024%=      5-min Rain = 0
KEN1 151947Z 20014KT 18/M03 A3018 RMK A01 T01771031  RH  024%=      5-min Rain = 0
KEN1 151948Z 21018KT 18/M03 A3018 RMK A01 T01801030  RH  024%=      5-min Rain = 0
KEN1 151949Z 21013KT 18/M03 A3018 RMK A01 T01801030  RH  024%=      5-min Rain = 0
KEN1 151950Z 20016KT 18/M03 A3018 RMK A01 T01831027  RH  024%=      5-min Rain = 0
KEN1 151951Z 20018KT 18/M03 A3018 RMK A01 T01841030  RH  023%=      5-min Rain = 0
KEN1 151952Z 20017KT 18/M03 A3018 RMK A01 T01831030  RH  023%=      5-min Rain = 0
KEN1 151953Z 20018KT 18/M03 A3018 RMK A01 T01811032  RH  023%=      5-min Rain = 0
KEN1 151954Z 20017KT 18/M03 A3018 RMK A01 T01781033  RH  024%=      5-min Rain = 0
KEN1 151955Z 20016KT 18/M03 A3018 RMK A01 T01781032  RH  024%=      5-min Rain = 0
KEN1 151956Z 21019KT 18/M03 A3018 RMK A01 T01781032  RH  024%=      5-min Rain = 0
KEN1 151957Z 21016KT 18/M03 A3018 RMK A01 T01771034  RH  023%=      5-min Rain = 0
KEN1 151958Z 21018KT 18/M03 A3018 RMK A01 T01771032  RH  024%=      5-min Rain = 0
KEN1 151959Z 21016KT 18/M03 A3018 RMK A01 T01771032  RH  024%=      5-min Rain = 0
KEN1 152000Z 20014KT 18/M03 A3018 RMK A01 T01771031  RH  024%=      5-min Rain = 0
KEN1 152001Z 20017G22KT 18/M03 A3017 RMK A01 T01781031  RH  024%=      5-min Rain = 0
KEN1 152002Z 21018KT 18/M03 A3017 RMK A01 T01791032  RH  024%=      5-min Rain = 0
KEN1 152003Z 21017KT 18/M03 A3017 RMK A01 T01791032  RH  024%=      5-min Rain = 0
KEN1 152004Z 21015KT 18/M03 A3017 RMK A01 T01781031  RH  024%=      5-min Rain = 0
KEN1 152005Z 20018KT 18/M03 A3017 RMK A01 T01791031  RH  024%=      5-min Rain = 0
KEN1 152006Z 20015KT 18/M03 A3017 RMK A01 T01791031  RH  024%=      5-min Rain = 0
KEN1 152007Z 20017KT 18/M03 A3017 RMK A01 T01811029  RH  024%=      5-min Rain = 0
KEN1 152008Z 21017KT 18/M03 A3017 RMK A01 T01811030  RH  024%=      5-min Rain = 0
KEN1 152009Z 22017KT 18/M03 A3017 RMK A01 T01811031  RH  024%=      5-min Rain = 0
KEN1 152010Z 22016KT 18/M03 A3017 RMK A01 T01811031  RH  024%=      5-min Rain = 0
KEN1 152011Z 22019KT 18/M03 A3017 RMK A01 T01801031  RH  024%=      5-min Rain = 0
KEN1 152012Z 21017KT 18/M03 A3017 RMK A01 T01801031  RH  024%=      5-min Rain = 0
KEN1 152013Z 21018KT 18/M03 A3017 RMK A01 T01801032  RH  024%=      5-min Rain = 0
KEN1 152014Z 21018KT 18/M03 A3017 RMK A01 T01781033  RH  024%=      5-min Rain = 0
KEN1 152015Z 21020KT 18/M03 A3017 RMK A01 T01791032  RH  024%=      5-min Rain = 0
KEN1 152016Z 21016KT 18/M03 A3017 RMK A01 T01801031  RH  024%=      5-min Rain = 0
KEN1 152017Z 21014KT 18/M03 A3017 RMK A01 T01801031  RH  024%=      5-min Rain = 0
KEN1 152018Z 21015KT 18/M03 A3017 RMK A01 T01811031  RH  023%=      5-min Rain = 0
KEN1 152019Z 21016KT 18/M03 A3017 RMK A01 T01841030  RH  023%=      5-min Rain = 0
KEN1 152020Z 22018KT 19/M03 A3017 RMK A01 T01861031  RH  023%=      5-min Rain = 0
KEN1 152021Z 22017G22KT 19/M03 A3017 RMK A01 T01851032  RH  023%=      5-min Rain = 0
KEN1 152022Z 20017KT 18/M03 A3016 RMK A01 T01841032  RH  023%=      5-min Rain = 0
KEN1 152023Z 22018KT 18/M03 A3016 RMK A01 T01831031  RH  023%=      5-min Rain = 0
KEN1 152024Z 22016KT 18/M03 A3016 RMK A01 T01831030  RH  023%=      5-min Rain = 0
KEN1 152025Z 21019KT 19/M03 A3016 RMK A01 T01851029  RH  023%=      5-min Rain = 0
KEN1 152026Z 22016KT 19/M03 A3016 RMK A01 T01861029  RH  023%=      5-min Rain = 0
KEN1 152027Z 21015KT 19/M03 A3016 RMK A01 T01861030  RH  023%=      5-min Rain = 0
KEN1 152028Z 20017KT 19/M03 A3016 RMK A01 T01861030  RH  023%=      5-min Rain = 0
KEN1 152029Z 20018KT 19/M03 A3016 RMK A01 T01861032  RH  023%=      5-min Rain = 0
KEN1 152030Z 21018KT 19/M03 A3016 RMK A01 T01861031  RH  023%=      5-min Rain = 0
KEN1 152031Z 21019KT 19/M03 A3016 RMK A01 T01861032  RH  023%=      5-min Rain = 0
KEN1 152032Z 21019KT 19/M03 A3016 RMK A01 T01861033  RH  022%=      5-min Rain = 0
KEN1 152033Z 21017KT 18/M03 A3016 RMK A01 T01841033  RH  023%=      5-min Rain = 0
KEN1 152034Z 21019KT 18/M03 A3016 RMK A01 T01831032  RH  023%=      5-min Rain = 0
KEN1 152035Z 21015KT 19/M03 A3016 RMK A01 T01851031  RH  023%=      5-min Rain = 0
KEN1 152036Z 20016G22KT 19/M03 A3016 RMK A01 T01881029  RH  023%=      5-min Rain = 0
KEN1 152037Z 21019KT 19/M03 A3016 RMK A01 T01891031  RH  022%=      5-min Rain = 0
KEN1 152038Z 21021KT 19/M03 A3016 RMK A01 T01871033  RH  022%=      5-min Rain = 0
KEN1 152039Z 21018KT 19/M03 A3016 RMK A01 T01851033  RH  023%=      5-min Rain = 0
KEN1 152040Z 20016KT 19/M03 A3016 RMK A01 T01861031  RH  023%=      5-min Rain = 0
KEN1 152041Z 20016KT 19/M03 A3016 RMK A01 T01881030  RH  022%=      5-min Rain = 0
KEN1 152042Z 21015KT 19/M03 A3016 RMK A01 T01901031  RH  022%=      5-min Rain = 0
KEN1 152043Z 20017KT 19/M03 A3015 RMK A01 T01901031  RH  022%=      5-min Rain = 0
KEN1 152044Z 20019KT 19/M03 A3015 RMK A01 T01891033  RH  022%=      5-min Rain = 0
KEN1 152045Z 21018G23KT 19/M04 A3015 RMK A01 T01861036  RH  022%=      5-min Rain = 0
KEN1 152046Z 21020KT 19/M04 A3015 RMK A01 T01851035  RH  022%=      5-min Rain = 0
KEN1 152047Z 21020KT 19/M04 A3015 RMK A01 T01851035  RH  022%=      5-min Rain = 0
KEN1 152048Z 21018KT 18/M04 A3015 RMK A01 T01841036  RH  022%=      5-min Rain = 0
KEN1 152049Z 21020KT 18/M04 A3015 RMK A01 T01841036  RH  022%=      5-min Rain = 0
KEN1 152050Z 21018KT 18/M04 A3015 RMK A01 T01841036  RH  022%=      5-min Rain = 0
KEN1 152051Z 21019G24KT 19/M04 A3015 RMK A01 T01851036  RH  022%=      5-min Rain = 0
KEN1 152052Z 21020KT 19/M04 A3015 RMK A01 T01851039  RH  022%=      5-min Rain = 0
KEN1 152053Z 21018G23KT 18/M04 A3015 RMK A01 T01831039  RH  022%=      5-min Rain = 0
KEN1 152054Z 21018KT 18/M04 A3015 RMK A01 T01831039  RH  022%=      5-min Rain = 0
KEN1 152055Z 21015KT 18/M04 A3015 RMK A01 T01831038  RH  022%=      5-min Rain = 0
KEN1 152056Z 20017KT 18/M04 A3015 RMK A01 T01831036  RH  022%=      5-min Rain = 0
KEN1 152057Z 20015KT 18/M04 A3015 RMK A01 T01841036  RH  022%=      5-min Rain = 0
KEN1 152058Z 21017G23KT 18/M04 A3015 RMK A01 T01841035  RH  022%=      5-min Rain = 0
KEN1 152059Z 21019G24KT 18/M04 A3015 RMK A01 T01841038  RH  022%=      5-min Rain = 0
KEN1 152100Z 21019KT 18/M04 A3015 RMK A01 T01831039  RH  022%=      5-min Rain = 0
KEN1 152101Z 22016KT 18/M04 A3015 RMK A01 T01811040  RH  022%=      5-min Rain = 0
KEN1 152102Z 22015KT 18/M04 A3015 RMK A01 T01801038  RH  022%=      5-min Rain = 0
KEN1 152103Z 21016KT 18/M04 A3015 RMK A01 T01791039  RH  022%=      5-min Rain = 0
KEN1 152104Z 21017KT 18/M04 A3015 RMK A01 T01791039  RH  022%=      5-min Rain = 0
KEN1 152105Z 21018KT 18/M04 A3015 RMK A01 T01781039  RH  023%=      5-min Rain = 0
KEN1 152106Z 21016KT 18/M04 A3015 RMK A01 T01761040  RH  023%=      5-min Rain = 0
KEN1 152107Z 21018KT 18/M04 A3015 RMK A01 T01761039  RH  023%=      5-min Rain = 0
KEN1 152108Z 20018KT 18/M04 A3015 RMK A01 T01761040  RH  023%=      5-min Rain = 0
KEN1 152109Z 20015KT 18/M04 A3015 RMK A01 T01761040  RH  023%=      5-min Rain = 0
KEN1 152110Z 20016KT 18/M04 A3015 RMK A01 T01771039  RH  023%=      5-min Rain = 0
KEN1 152111Z 20015KT 18/M04 A3015 RMK A01 T01781038  RH  023%=      5-min Rain = 0
KEN1 152112Z 21016KT 18/M04 A3015 RMK A01 T01791037  RH  023%=      5-min Rain = 0
KEN1 152113Z 21015KT 18/M04 A3015 RMK A01 T01811038  RH  022%=      5-min Rain = 0
KEN1 152114Z 21014G20KT 18/M04 A3015 RMK A01 T01831038  RH  022%=      5-min Rain = 0
KEN1 152115Z 21016KT 18/M04 A3015 RMK A01 T01831039  RH  022%=      5-min Rain = 0
KEN1 152116Z 21013KT 18/M04 A3015 RMK A01 T01841038  RH  022%=      5-min Rain = 0
KEN1 152117Z 21015KT 19/M04 A3015 RMK A01 T01851037  RH  022%=      5-min Rain = 0
KEN1 152118Z 21018KT 19/M04 A3015 RMK A01 T01861037  RH  022%=      5-min Rain = 0
KEN1 152119Z 21018G23KT 19/M04 A3015 RMK A01 T01851038  RH  022%=      5-min Rain = 0
KEN1 152120Z 21017KT 18/M04 A3015 RMK A01 T01841039  RH  022%=      5-min Rain = 0
KEN1 152121Z 21016KT 18/M04 A3015 RMK A01 T01831039  RH  022%=      5-min Rain = 0
KEN1 152122Z 21013KT 18/M04 A3015 RMK A01 T01821039  RH  022%=      5-min Rain = 0
KEN1 152123Z 21015KT 18/M04 A3015 RMK A01 T01821037  RH  022%=      5-min Rain = 0
KEN1 152124Z 21016KT 18/M04 A3015 RMK A01 T01821038  RH  022%=      5-min Rain = 0
KEN1 152125Z 21014KT 18/M04 A3015 RMK A01 T01811038  RH  022%=      5-min Rain = 0
KEN1 152126Z 20013KT 18/M04 A3015 RMK A01 T01801036  RH  023%=      5-min Rain = 0
KEN1 152127Z 21018KT 18/M04 A3015 RMK A01 T01811036  RH  023%=      5-min Rain = 0
KEN1 152128Z 20016KT 18/M04 A3015 RMK A01 T01811037  RH  022%=      5-min Rain = 0
KEN1 152129Z 20015KT 18/M04 A3015 RMK A01 T01811038  RH  022%=      5-min Rain = 0
KEN1 152130Z 20015KT 18/M04 A3015 RMK A01 T01811038  RH  022%=      5-min Rain = 0
KEN1 152131Z 20017KT 18/M04 A3015 RMK A01 T01821039  RH  022%=      5-min Rain = 0
KEN1 152132Z 20019KT 18/M04 A3014 RMK A01 T01831040  RH  022%=      5-min Rain = 0
KEN1 152133Z 21018KT 18/M04 A3014 RMK A01 T01841041  RH  021%=      5-min Rain = 0
KEN1 152134Z 21019KT 18/M04 A3014 RMK A01 T01841042  RH  021%=      5-min Rain = 0
KEN1 152135Z 20018KT 18/M04 A3014 RMK A01 T01831042  RH  021%=      5-min Rain = 0
KEN1 152136Z 20018KT 18/M04 A3014 RMK A01 T01841041  RH  021%=      5-min Rain = 0
KEN1 152137Z 21017KT 18/M04 A3014 RMK A01 T01841041  RH  021%=      5-min Rain = 0
KEN1 152138Z 21017KT 19/M04 A3014 RMK A01 T01851042  RH  021%=      5-min Rain = 0
KEN1 152139Z 21016KT 19/M04 A3014 RMK A01 T01851042  RH  021%=      5-min Rain = 0
KEN1 152140Z 20016KT 19/M04 A3014 RMK A01 T01861042  RH  021%=      5-min Rain = 0
KEN1 152141Z 21017KT 19/M04 A3014 RMK A01 T01871043  RH  021%=      5-min Rain = 0
KEN1 152142Z 21016KT 19/M04 A3014 RMK A01 T01881043  RH  021%=      5-min Rain = 0
KEN1 152143Z 21016KT 19/M04 A3014 RMK A01 T01881043  RH  020%=      5-min Rain = 0
KEN1 152144Z 20016KT 19/M04 A3014 RMK A01 T01891043  RH  020%=      5-min Rain = 0
KEN1 152145Z 20015KT 19/M04 A3014 RMK A01 T01891042  RH  021%=      5-min Rain = 0
KEN1 152146Z 20018KT 19/M04 A3014 RMK A01 T01891041  RH  021%=      5-min Rain = 0
KEN1 152147Z 21015KT 19/M04 A3014 RMK A01 T01881043  RH  021%=      5-min Rain = 0
KEN1 152148Z 21014KT 19/M04 A3014 RMK A01 T01881042  RH  021%=      5-min Rain = 0
KEN1 152149Z 21013KT 19/M04 A3014 RMK A01 T01881042  RH  021%=      5-min Rain = 0
KEN1 152150Z 20018KT 19/M04 A3014 RMK A01 T01891042  RH  021%=      5-min Rain = 0
KEN1 152151Z 20016G21KT 19/M04 A3014 RMK A01 T01881043  RH  020%=      5-min Rain = 0
KEN1 152152Z 20015KT 19/M04 A3014 RMK A01 T01871042  RH  021%=      5-min Rain = 0
KEN1 152153Z 20016KT 19/M04 A3014 RMK A01 T01881042  RH  021%=      5-min Rain = 0
KEN1 152154Z 21015KT 19/M04 A3014 RMK A01 T01881042  RH  021%=      5-min Rain = 0
KEN1 152155Z 19017KT 19/M04 A3014 RMK A01 T01891042  RH  020%=      5-min Rain = 0
KEN1 152156Z 20014KT 19/M04 A3014 RMK A01 T01891043  RH  020%=      5-min Rain = 0
KEN1 152157Z 19017KT 19/M04 A3014 RMK A01 T01871043  RH  021%=      5-min Rain = 0
KEN1 152158Z 19018KT 19/M05 A3014 RMK A01 T01861045  RH  020%=      5-min Rain = 0
KEN1 152159Z 20016KT 19/M05 A3014 RMK A01 T01851045  RH  021%=      5-min Rain = 0
KEN1 152200Z 19015G20KT 19/M04 A3014 RMK A01 T01851043  RH  021%=      5-min Rain = 0
KEN1 152201Z 19016KT 19/M04 A3014 RMK A01 T01861043  RH  021%=      5-min Rain = 0
KEN1 152202Z 20016KT 19/M04 A3013 RMK A01 T01861044  RH  021%=      5-min Rain = 0
KEN1 152203Z 20014G19KT 19/M04 A3014 RMK A01 T01871043  RH  021%=      5-min Rain = 0
KEN1 152204Z 20018KT 19/M04 A3013 RMK A01 T01891041  RH  021%=      5-min Rain = 0
KEN1 152205Z 20019KT 19/M04 A3013 RMK A01 T01891043  RH  020%=      5-min Rain = 0
KEN1 152206Z 20016KT 19/M04 A3013 RMK A01 T01881043  RH  020%=      5-min Rain = 0
KEN1 152207Z 20016KT 19/M04 A3013 RMK A01 T01891042  RH  021%=      5-min Rain = 0
KEN1 152208Z 20017KT 19/M04 A3013 RMK A01 T01891043  RH  020%=      5-min Rain = 0
KEN1 152209Z 19018KT 19/M04 A3013 RMK A01 T01881044  RH  020%=      5-min Rain = 0
KEN1 152210Z 20016KT 19/M04 A3013 RMK A01 T01871043  RH  021%=      5-min Rain = 0
KEN1 152211Z 20017KT 19/M04 A3013 RMK A01 T01871043  RH  021%=      5-min Rain = 0
KEN1 152212Z 20015KT 19/M04 A3013 RMK A01 T01871043  RH  021%=      5-min Rain = 0
KEN1 152213Z 20016G21KT 19/M04 A3013 RMK A01 T01871043  RH  021%=      5-min Rain = 0
KEN1 152214Z 20014KT 19/M04 A3013 RMK A01 T01871043  RH  021%=      5-min Rain = 0
KEN1 152215Z 20016KT 19/M04 A3013 RMK A01 T01871042  RH  021%=      5-min Rain = 0
KEN1 152216Z 20014KT 19/M04 A3013 RMK A01 T01871043  RH  021%=      5-min Rain = 0
KEN1 152217Z 20015KT 19/M04 A3013 RMK A01 T01861042  RH  021%=      5-min Rain = 0
KEN1 152218Z 21016KT 19/M04 A3013 RMK A01 T01851043  RH  021%=      5-min Rain = 0
KEN1 152219Z 21016KT 19/M04 A3013 RMK A01 T01851044  RH  021%=      5-min Rain = 0
KEN1 152220Z 21015KT 19/M04 A3013 RMK A01 T01851043  RH  021%=      5-min Rain = 0
KEN1 152221Z 21015KT 19/M04 A3013 RMK A01 T01851042  RH  021%=      5-min Rain = 0
KEN1 152222Z 21016KT 19/M04 A3013 RMK A01 T01851042  RH  021%=      5-min Rain = 0
KEN1 152223Z 21014KT 19/M04 A3013 RMK A01 T01851042  RH  021%=      5-min Rain = 0
KEN1 152224Z 21016KT 19/M04 A3013 RMK A01 T01851042  RH  021%=      5-min Rain = 0
KEN1 152225Z 20016KT 19/M04 A3013 RMK A01 T01851042  RH  021%=      5-min Rain = 0
KEN1 152226Z 20018KT 19/M04 A3013 RMK A01 T01861041  RH  021%=      5-min Rain = 0
KEN1 152227Z 20015KT 19/M04 A3013 RMK A01 T01861042  RH  021%=      5-min Rain = 0
KEN1 152228Z 20013KT 19/M04 A3013 RMK A01 T01851041  RH  021%=      5-min Rain = 0
KEN1 152229Z 20017KT 19/M04 A3013 RMK A01 T01851041  RH  021%=      5-min Rain = 0
KEN1 152230Z 20015KT 19/M04 A3013 RMK A01 T01851042  RH  021%=      5-min Rain = 0
KEN1 152231Z 20016KT 18/M04 A3013 RMK A01 T01841042  RH  021%=      5-min Rain = 0
KEN1 152232Z 20019KT 18/M04 A3013 RMK A01 T01841042  RH  021%=      5-min Rain = 0
KEN1 152233Z 20018KT 18/M04 A3013 RMK A01 T01841044  RH  021%=      5-min Rain = 0
KEN1 152234Z 20018KT 18/M04 A3013 RMK A01 T01831043  RH  021%=      5-min Rain = 0
KEN1 152235Z 21016KT 18/M04 A3013 RMK A01 T01831043  RH  021%=      5-min Rain = 0
KEN1 152236Z 20016KT 18/M04 A3013 RMK A01 T01831042  RH  021%=      5-min Rain = 0
KEN1 152237Z 20016KT 18/M04 A3013 RMK A01 T01831043  RH  021%=      5-min Rain = 0
KEN1 152238Z 21014KT 18/M04 A3012 RMK A01 T01841043  RH  021%=      5-min Rain = 0
KEN1 152239Z 20015KT 18/M04 A3013 RMK A01 T01841042  RH  021%=      5-min Rain = 0
KEN1 152240Z 20017KT 18/M04 A3012 RMK A01 T01841042  RH  021%=      5-min Rain = 0
KEN1 152241Z 20017KT 18/M04 A3013 RMK A01 T01841042  RH  021%=      5-min Rain = 0
KEN1 152242Z 19017KT 18/M04 A3013 RMK A01 T01831043  RH  021%=      5-min Rain = 0
KEN1 152243Z 19018KT 18/M04 A3012 RMK A01 T01831043  RH  021%=      5-min Rain = 0
KEN1 152244Z 20016KT 18/M04 A3012 RMK A01 T01831044  RH  021%=      5-min Rain = 0
KEN1 152245Z 20015KT 18/M04 A3013 RMK A01 T01831043  RH  021%=      5-min Rain = 0
KEN1 152246Z 20012KT 18/M04 A3013 RMK A01 T01821043  RH  021%=      5-min Rain = 0
KEN1 152247Z 20015G21KT 18/M04 A3013 RMK A01 T01821042  RH  021%=      5-min Rain = 0
KEN1 152248Z 20017KT 18/M04 A3013 RMK A01 T01821043  RH  021%=      5-min Rain = 0
KEN1 152249Z 20016KT 18/M04 A3013 RMK A01 T01821044  RH  021%=      5-min Rain = 0
KEN1 152250Z 20015KT 18/M04 A3013 RMK A01 T01811044  RH  021%=      5-min Rain = 0
KEN1 152251Z 20016KT 18/M04 A3013 RMK A01 T01801044  RH  021%=      5-min Rain = 0
KEN1 152252Z 19015KT 18/M05 A3013 RMK A01 T01791045  RH  021%=      5-min Rain = 0
KEN1 152253Z 19016KT 18/M05 A3013 RMK A01 T01781046  RH  021%=      5-min Rain = 0
KEN1 152254Z 20016KT 18/M05 A3013 RMK A01 T01771046  RH  021%=      5-min Rain = 0
KEN1 152255Z 20014KT 18/M05 A3013 RMK A01 T01771046  RH  022%=      5-min Rain = 0
KEN1 152256Z 21014KT 18/M05 A3013 RMK A01 T01771046  RH  022%=      5-min Rain = 0
KEN1 152257Z 20013KT 18/M05 A3013 RMK A01 T01771045  RH  022%=      5-min Rain = 0
KEN1 152258Z 20013KT 18/M05 A3013 RMK A01 T01771045  RH  022%=      5-min Rain = 0
KEN1 152259Z 20013KT 18/M05 A3013 RMK A01 T01771045  RH  022%=      5-min Rain = 0
KEN1 152300Z 20013KT 18/M04 A3013 RMK A01 T01761044  RH  022%=      5-min Rain = 0
KEN1 152301Z 20014KT 18/M05 A3013 RMK A01 T01761045  RH  022%=      5-min Rain = 0
KEN1 152302Z 20016KT 18/M05 A3013 RMK A01 T01771045  RH  022%=      5-min Rain = 0
KEN1 152303Z 20013KT 18/M05 A3013 RMK A01 T01761045  RH  022%=      5-min Rain = 0
KEN1 152304Z 20011KT 18/M04 A3013 RMK A01 T01751044  RH  022%=      5-min Rain = 0
KEN1 152305Z 20012KT 17/M04 A3013 RMK A01 T01741044  RH  022%=      5-min Rain = 0
KEN1 152306Z 20010KT 17/M04 A3013 RMK A01 T01731044  RH  022%=      5-min Rain = 0
KEN1 152307Z 20010KT 17/M04 A3013 RMK A01 T01741043  RH  022%=      5-min Rain = 0
KEN1 152308Z 20012KT 17/M04 A3013 RMK A01 T01731044  RH  022%=      5-min Rain = 0
KEN1 152309Z 20015KT 17/M04 A3013 RMK A01 T01731044  RH  022%=      5-min Rain = 0
KEN1 152310Z 20014KT 17/M05 A3013 RMK A01 T01731045  RH  022%=      5-min Rain = 0
KEN1 152311Z 20015KT 17/M05 A3013 RMK A01 T01721045  RH  022%=      5-min Rain = 0
KEN1 152312Z 20012KT 17/M05 A3013 RMK A01 T01721045  RH  022%=      5-min Rain = 0
KEN1 152313Z 20012KT 17/M05 A3013 RMK A01 T01711045  RH  023%=      5-min Rain = 0
KEN1 152314Z 20013KT 17/M05 A3013 RMK A01 T01701045  RH  023%=      5-min Rain = 0
KEN1 152315Z 20013KT 17/M05 A3013 RMK A01 T01701045  RH  023%=      5-min Rain = 0
KEN1 152316Z 20011KT 17/M05 A3013 RMK A01 T01691046  RH  023%=      5-min Rain = 0
KEN1 152317Z 20011KT 17/M05 A3013 RMK A01 T01681045  RH  023%=      5-min Rain = 0
KEN1 152318Z 20011KT 17/M05 A3013 RMK A01 T01671045  RH  023%=      5-min Rain = 0
KEN1 152319Z 20010KT 17/M05 A3013 RMK A01 T01671045  RH  023%=      5-min Rain = 0
KEN1 152320Z 19013KT 17/M05 A3013 RMK A01 T01671045  RH  023%=      5-min Rain = 0
KEN1 152321Z 20012KT 17/M05 A3013 RMK A01 T01671046  RH  023%=      5-min Rain = 0
KEN1 152322Z 19011KT 17/M05 A3013 RMK A01 T01671046  RH  023%=      5-min Rain = 0
KEN1 152323Z 19010KT 17/M05 A3013 RMK A01 T01671045  RH  023%=      5-min Rain = 0
KEN1 152324Z 19009KT 17/M05 A3013 RMK A01 T01651045  RH  023%=      5-min Rain = 0
KEN1 152325Z 19010KT 16/M05 A3013 RMK A01 T01631045  RH  024%=      5-min Rain = 0
KEN1 152326Z 19010KT 16/M05 A3013 RMK A01 T01621046  RH  024%=      5-min Rain = 0
KEN1 152327Z 19010KT 16/M05 A3013 RMK A01 T01611046  RH  024%=      5-min Rain = 0
KEN1 152328Z 19011KT 16/M05 A3013 RMK A01 T01611046  RH  024%=      5-min Rain = 0
KEN1 152329Z 19010KT 16/M05 A3013 RMK A01 T01601046  RH  024%=      5-min Rain = 0
KEN1 152330Z 19010KT 16/M05 A3013 RMK A01 T01591046  RH  024%=      5-min Rain = 0
KEN1 152331Z 19010KT 16/M05 A3013 RMK A01 T01591046  RH  024%=      5-min Rain = 0
KEN1 152332Z 19009KT 16/M05 A3013 RMK A01 T01581046  RH  024%=      5-min Rain = 0
KEN1 152333Z 19009KT 16/M05 A3013 RMK A01 T01571046  RH  024%=      5-min Rain = 0
KEN1 152334Z 18009KT 16/M05 A3013 RMK A01 T01561046  RH  025%=      5-min Rain = 0
KEN1 152335Z 18008KT 15/M05 A3013 RMK A01 T01541046  RH  025%=      5-min Rain = 0
KEN1 152336Z 18009KT 15/M05 A3013 RMK A01 T01521046  RH  025%=      5-min Rain = 0
KEN1 152337Z 18008KT 15/M05 A3013 RMK A01 T01501046  RH  026%=      5-min Rain = 0
KEN1 152338Z 18008KT 15/M05 A3013 RMK A01 T01481046  RH  026%=      5-min Rain = 0
KEN1 152339Z 18009KT 15/M05 A3013 RMK A01 T01461046  RH  026%=      5-min Rain = 0
KEN1 152340Z 18009KT 15/M05 A3013 RMK A01 T01451046  RH  026%=      5-min Rain = 0
KEN1 152341Z 18009KT 14/M05 A3013 RMK A01 T01441046  RH  027%=      5-min Rain = 0
KEN1 152342Z 18008KT 14/M05 A3013 RMK A01 T01431046  RH  027%=      5-min Rain = 0
KEN1 152343Z 18008KT 14/M05 A3013 RMK A01 T01421045  RH  027%=      5-min Rain = 0
KEN1 152344Z 18008KT 14/M05 A3013 RMK A01 T01411046  RH  027%=      5-min Rain = 0
KEN1 152345Z 18008KT 14/M05 A3013 RMK A01 T01401046  RH  027%=      5-min Rain = 0
KEN1 152346Z 18009KT 14/M05 A3013 RMK A01 T01381046  RH  028%=      5-min Rain = 0
KEN1 152347Z 18009KT 14/M05 A3013 RMK A01 T01371046  RH  028%=      5-min Rain = 0
KEN1 152348Z 18009KT 14/M05 A3013 RMK A01 T01371046  RH  028%=      5-min Rain = 0
KEN1 152349Z 18009KT 14/M05 A3013 RMK A01 T01361046  RH  028%=      5-min Rain = 0
KEN1 152350Z 18009KT 14/M05 A3013 RMK A01 T01351046  RH  028%=      5-min Rain = 0
KEN1 152351Z 18009KT 13/M05 A3013 RMK A01 T01331046  RH  028%=      5-min Rain = 0
KEN1 152352Z 18009KT 13/M05 A3013 RMK A01 T01321046  RH  029%=      5-min Rain = 0
KEN1 152353Z 18009KT 13/M05 A3013 RMK A01 T01311046  RH  029%=      5-min Rain = 0
KEN1 152354Z 18009KT 13/M05 A3013 RMK A01 T01301046  RH  029%=      5-min Rain = 0
KEN1 152355Z 18009KT 13/M05 A3013 RMK A01 T01301046  RH  029%=      5-min Rain = 0
KEN1 152356Z 18009KT 13/M05 A3013 RMK A01 T01301046  RH  029%=      5-min Rain = 0
KEN1 152357Z 18009KT 13/M05 A3013 RMK A01 T01291047  RH  029%=      5-min Rain = 0
KEN1 152358Z 18009KT 13/M05 A3013 RMK A01 T01281047  RH  029%=      5-min Rain = 0
KEN1 152359Z 18009KT 13/M05 A3013 RMK A01 T01271047  RH  029%=      5-min Rain = 0
KEN1 160000Z 18009KT 13/M05 A3013 RMK A01 T01261047  RH  029%=      5-min Rain = 0
KEN1 160001Z 18008KT 13/M05 A3013 RMK A01 T01251048  RH  030%=      5-min Rain = 0
KEN1 160002Z 18009KT 12/M05 A3013 RMK A01 T01241047  RH  030%=      5-min Rain = 0
KEN1 160003Z 18009KT 12/M05 A3013 RMK A01 T01241048  RH  030%=      5-min Rain = 0
KEN1 160004Z 18009KT 12/M05 A3013 RMK A01 T01241048  RH  030%=      5-min Rain = 0
KEN1 160005Z 18009KT 12/M05 A3013 RMK A01 T01241047  RH  030%=      5-min Rain = 0
KEN1 160006Z 18009KT 12/M05 A3013 RMK A01 T01231048  RH  030%=      5-min Rain = 0
KEN1 160007Z 18010KT 12/M05 A3013 RMK A01 T01221048  RH  030%=      5-min Rain = 0
KEN1 160008Z 18009KT 12/M05 A3013 RMK A01 T01211048  RH  031%=      5-min Rain = 0
KEN1 160009Z 18009KT 12/M05 A3013 RMK A01 T01201048  RH  031%=      5-min Rain = 0
KEN1 160010Z 18009KT 12/M05 A3013 RMK A01 T01201048  RH  031%=      5-min Rain = 0
KEN1 160011Z 18009KT 12/M05 A3013 RMK A01 T01211048  RH  031%=      5-min Rain = 0
KEN1 160012Z 18009KT 12/M05 A3013 RMK A01 T01201048  RH  031%=      5-min Rain = 0
KEN1 160013Z 18009KT 12/M05 A3013 RMK A01 T01191048  RH  031%=      5-min Rain = 0
KEN1 160014Z 17009KT 12/M05 A3013 RMK A01 T01191048  RH  031%=      5-min Rain = 0
KEN1 160015Z 17009KT 12/M05 A3013 RMK A01 T01181048  RH  031%=      5-min Rain = 0
KEN1 160016Z 17009KT 12/M05 A3013 RMK A01 T01171047  RH  031%=      5-min Rain = 0
KEN1 160017Z 18008KT 12/M05 A3013 RMK A01 T01161047  RH  032%=      5-min Rain = 0
KEN1 160018Z 17009KT 12/M05 A3013 RMK A01 T01151047  RH  032%=      5-min Rain = 0
KEN1 160019Z 17008KT 12/M05 A3014 RMK A01 T01151047  RH  032%=      5-min Rain = 0
KEN1 160020Z 17009KT 11/M05 A3014 RMK A01 T01131048  RH  032%=      5-min Rain = 0
KEN1 160021Z 18009KT 11/M05 A3014 RMK A01 T01131048  RH  032%=      5-min Rain = 0
KEN1 160022Z 18010KT 11/M05 A3014 RMK A01 T01131048  RH  032%=      5-min Rain = 0
KEN1 160023Z 18010KT 11/M05 A3014 RMK A01 T01131047  RH  032%=      5-min Rain = 0
KEN1 160024Z 18010KT 11/M05 A3014 RMK A01 T01141047  RH  032%=      5-min Rain = 0
KEN1 160025Z 18010KT 12/M05 A3014 RMK A01 T01151047  RH  032%=      5-min Rain = 0
KEN1 160026Z 18009KT 12/M05 A3014 RMK A01 T01161047  RH  032%=      5-min Rain = 0
KEN1 160027Z 18009KT 12/M05 A3014 RMK A01 T01161047  RH  032%=      5-min Rain = 0
KEN1 160028Z 18009KT 12/M05 A3014 RMK A01 T01161047  RH  032%=      5-min Rain = 0
KEN1 160029Z 18009KT 12/M05 A3014 RMK A01 T01161047  RH  032%=      5-min Rain = 0
KEN1 160030Z 18008KT 12/M05 A3014 RMK A01 T01161047  RH  032%=      5-min Rain = 0
KEN1 160031Z 18008KT 12/M05 A3014 RMK A01 T01161047  RH  032%=      5-min Rain = 0
KEN1 160032Z 18008KT 12/M05 A3014 RMK A01 T01151047  RH  032%=      5-min Rain = 0
KEN1 160033Z 18008KT 11/M05 A3014 RMK A01 T01131047  RH  032%=      5-min Rain = 0
KEN1 160034Z 18008KT 11/M05 A3014 RMK A01 T01131048  RH  032%=      5-min Rain = 0
KEN1 160035Z 18008KT 11/M05 A3014 RMK A01 T01121047  RH  032%=      5-min Rain = 0
KEN1 160036Z 18008KT 11/M05 A3014 RMK A01 T01111048  RH  033%=      5-min Rain = 0
KEN1 160037Z 18008KT 11/M05 A3014 RMK A01 T01111047  RH  033%=      5-min Rain = 0
KEN1 160038Z 18008KT 11/M05 A3014 RMK A01 T01101048  RH  033%=      5-min Rain = 0
KEN1 160039Z 18009KT 11/M05 A3014 RMK A01 T01101047  RH  033%=      5-min Rain = 0
KEN1 160040Z 18009KT 11/M05 A3014 RMK A01 T01111047  RH  033%=      5-min Rain = 0
KEN1 160041Z 18009KT 11/M05 A3014 RMK A01 T01111047  RH  033%=      5-min Rain = 0
KEN1 160042Z 18008KT 11/M05 A3014 RMK A01 T01101048  RH  033%=      5-min Rain = 0
KEN1 160043Z 18008KT 11/M05 A3014 RMK A01 T01111048  RH  033%=      5-min Rain = 0
KEN1 160044Z 18008KT 11/M05 A3014 RMK A01 T01101048  RH  033%=      5-min Rain = 0
KEN1 160045Z 18008KT 11/M05 A3014 RMK A01 T01091048  RH  033%=      5-min Rain = 0
KEN1 160046Z 18009KT 11/M05 A3014 RMK A01 T01091048  RH  033%=      5-min Rain = 0
KEN1 160047Z 18008KT 11/M05 A3014 RMK A01 T01091048  RH  033%=      5-min Rain = 0
KEN1 160048Z 18008KT 11/M05 A3014 RMK A01 T01091048  RH  033%=      5-min Rain = 0
KEN1 160049Z 18008KT 11/M05 A3014 RMK A01 T01091048  RH  033%=      5-min Rain = 0
KEN1 160050Z 18008KT 11/M05 A3014 RMK A01 T01091048  RH  033%=      5-min Rain = 0
KEN1 160051Z 18008KT 11/M05 A3014 RMK A01 T01091048  RH  033%=      5-min Rain = 0
KEN1 160052Z 18008KT 11/M05 A3014 RMK A01 T01081049  RH  033%=      5-min Rain = 0
KEN1 160053Z 18008KT 11/M05 A3014 RMK A01 T01081048  RH  033%=      5-min Rain = 0
KEN1 160054Z 19008KT 11/M05 A3014 RMK A01 T01081048  RH  033%=      5-min Rain = 0
KEN1 160055Z 18007KT 11/M05 A3014 RMK A01 T01081048  RH  033%=      5-min Rain = 0
KEN1 160056Z 18007KT 11/M05 A3014 RMK A01 T01081048  RH  033%=      5-min Rain = 0
KEN1 160057Z 18007KT 11/M05 A3014 RMK A01 T01071048  RH  033%=      5-min Rain = 0
KEN1 160058Z 18007KT 11/M05 A3014 RMK A01 T01061049  RH  033%=      5-min Rain = 0
KEN1 160059Z 18007KT 11/M05 A3014 RMK A01 T01051049  RH  034%=      5-min Rain = 0
KEN1 160100Z 18007KT 10/M05 A3014 RMK A01 T01041049  RH  034%=      5-min Rain = 0
KEN1 160101Z 18008KT 10/M05 A3014 RMK A01 T01041048  RH  034%=      5-min Rain = 0
KEN1 160102Z 18007KT 10/M05 A3014 RMK A01 T01041048  RH  034%=      5-min Rain = 0
KEN1 160103Z 18007KT 10/M05 A3014 RMK A01 T01041049  RH  034%=      5-min Rain = 0
KEN1 160104Z 18007KT 10/M05 A3014 RMK A01 T01041049  RH  034%=      5-min Rain = 0
KEN1 160105Z 19007KT 10/M05 A3014 RMK A01 T01041049  RH  034%=      5-min Rain = 0
KEN1 160106Z 19007KT 10/M05 A3014 RMK A01 T01041049  RH  034%=      5-min Rain = 0
KEN1 160107Z 18007KT 10/M05 A3014 RMK A01 T01031049  RH  034%=      5-min Rain = 0
KEN1 160108Z 18008KT 10/M05 A3014 RMK A01 T01031049  RH  034%=      5-min Rain = 0
KEN1 160109Z 19007KT 10/M05 A3014 RMK A01 T01031049  RH  034%=      5-min Rain = 0
KEN1 160110Z 18008KT 10/M05 A3014 RMK A01 T01031049  RH  034%=      5-min Rain = 0
KEN1 160111Z 18008KT 10/M05 A3014 RMK A01 T01031050  RH  034%=      5-min Rain = 0
KEN1 160112Z 18008KT 11/M05 A3014 RMK A01 T01061049  RH  033%=      5-min Rain = 0
KEN1 160113Z 18008KT 11/M05 A3014 RMK A01 T01081048  RH  033%=      5-min Rain = 0
KEN1 160114Z 19008KT 11/M05 A3014 RMK A01 T01081049  RH  033%=      5-min Rain = 0
KEN1 160115Z 18008KT 11/M05 A3014 RMK A01 T01091049  RH  033%=      5-min Rain = 0
KEN1 160116Z 19008KT 11/M05 A3014 RMK A01 T01101049  RH  032%=      5-min Rain = 0
KEN1 160117Z 18007KT 11/M05 A3014 RMK A01 T01091049  RH  033%=      5-min Rain = 0
KEN1 160118Z 18008KT 11/M05 A3014 RMK A01 T01081050  RH  033%=      5-min Rain = 0
KEN1 160119Z 19008KT 11/M05 A3014 RMK A01 T01081050  RH  033%=      5-min Rain = 0
KEN1 160120Z 18008KT 11/M05 A3014 RMK A01 T01081050  RH  033%=      5-min Rain = 0
KEN1 160121Z 18008KT 11/M05 A3014 RMK A01 T01081050  RH  033%=      5-min Rain = 0
KEN1 160122Z 18008KT 11/M05 A3014 RMK A01 T01071050  RH  033%=      5-min Rain = 0
KEN1 160123Z 19008KT 11/M05 A3014 RMK A01 T01071050  RH  033%=      5-min Rain = 0
KEN1 160124Z 18008KT 11/M05 A3014 RMK A01 T01061050  RH  033%=      5-min Rain = 0
KEN1 160125Z 19008KT 11/M05 A3014 RMK A01 T01051050  RH  033%=      5-min Rain = 0
KEN1 160126Z 19008KT 10/M05 A3014 RMK A01 T01041050  RH  033%=      5-min Rain = 0
KEN1 160127Z 19008KT 10/M05 A3014 RMK A01 T01031051  RH  033%=      5-min Rain = 0
KEN1 160128Z 19008KT 10/M05 A3014 RMK A01 T01031050  RH  034%=      5-min Rain = 0
KEN1 160129Z 19008KT 10/M05 A3014 RMK A01 T01021050  RH  034%=      5-min Rain = 0
KEN1 160130Z 19008KT 10/M05 A3014 RMK A01 T01021050  RH  034%=      5-min Rain = 0
KEN1 160131Z 19008KT 10/M05 A3014 RMK A01 T01021050  RH  034%=      5-min Rain = 0
KEN1 160132Z 19008KT 10/M05 A3014 RMK A01 T01031050  RH  034%=      5-min Rain = 0
KEN1 160133Z 19008KT 10/M05 A3014 RMK A01 T01031050  RH  034%=      5-min Rain = 0
KEN1 160134Z 19008KT 10/M05 A3014 RMK A01 T01041050  RH  033%=      5-min Rain = 0
KEN1 160135Z 20007KT 10/M05 A3014 RMK A01 T01041050  RH  033%=      5-min Rain = 0
KEN1 160136Z 20007KT 11/M05 A3014 RMK A01 T01051050  RH  033%=      5-min Rain = 0
KEN1 160137Z 20008KT 11/M05 A3014 RMK A01 T01051050  RH  033%=      5-min Rain = 0
KEN1 160138Z 19007KT 11/M05 A3014 RMK A01 T01051050  RH  033%=      5-min Rain = 0
KEN1 160139Z 20007KT 11/M05 A3014 RMK A01 T01071050  RH  033%=      5-min Rain = 0
KEN1 160140Z 20008KT 11/M05 A3014 RMK A01 T01081050  RH  032%=      5-min Rain = 0
KEN1 160141Z 20008KT 11/M05 A3014 RMK A01 T01101050  RH  032%=      5-min Rain = 0
KEN1 160142Z 20008KT 11/M05 A3014 RMK A01 T01111050  RH  032%=      5-min Rain = 0
KEN1 160143Z 20009KT 11/M05 A3014 RMK A01 T01131050  RH  032%=      5-min Rain = 0
KEN1 160144Z 20010KT 12/M05 A3014 RMK A01 T01151050  RH  031%=      5-min Rain = 0
KEN1 160145Z 20010KT 12/M05 A3014 RMK A01 T01171050  RH  031%=      5-min Rain = 0
KEN1 160146Z 20009KT 12/M05 A3014 RMK A01 T01181050  RH  031%=      5-min Rain = 0
KEN1 160147Z 20011KT 12/M05 A3014 RMK A01 T01191050  RH  030%=      5-min Rain = 0
KEN1 160148Z 20011KT 12/M05 A3014 RMK A01 T01201050  RH  030%=      5-min Rain = 0
KEN1 160149Z 20011KT 12/M05 A3014 RMK A01 T01211050  RH  030%=      5-min Rain = 0
KEN1 160150Z 20010KT 12/M05 A3014 RMK A01 T01221050  RH  030%=      5-min Rain = 0
KEN1 160151Z 20009KT 12/M05 A3014 RMK A01 T01211050  RH  030%=      5-min Rain = 0
KEN1 160152Z 20010KT 12/M05 A3014 RMK A01 T01211050  RH  030%=      5-min Rain = 0
KEN1 160153Z 20011KT 12/M05 A3014 RMK A01 T01211050  RH  030%=      5-min Rain = 0
KEN1 160154Z 20009KT 12/M05 A3014 RMK A01 T01221050  RH  030%=      5-min Rain = 0
KEN1 160155Z 20010KT 12/M05 A3014 RMK A01 T01221050  RH  030%=      5-min Rain = 0
KEN1 160156Z 20010KT 12/M05 A3014 RMK A01 T01221050  RH  030%=      5-min Rain = 0
KEN1 160157Z 20011KT 12/M05 A3014 RMK A01 T01221050  RH  030%=      5-min Rain = 0
KEN1 160158Z 21010KT 12/M05 A3014 RMK A01 T01221050  RH  030%=      5-min Rain = 0
KEN1 160159Z 20010KT 12/M05 A3014 RMK A01 T01211050  RH  030%=      5-min Rain = 0
KEN1 160200Z 20009KT 12/M05 A3014 RMK A01 T01211050  RH  030%=      5-min Rain = 0
KEN1 160201Z 20009KT 12/M05 A3014 RMK A01 T01201049  RH  030%=      5-min Rain = 0
KEN1 160202Z 20009KT 12/M05 A3014 RMK A01 T01191050  RH  030%=      5-min Rain = 0
KEN1 160203Z 20009KT 12/M05 A3014 RMK A01 T01181049  RH  031%=      5-min Rain = 0
KEN1 160204Z 21009KT 12/M05 A3014 RMK A01 T01171049  RH  031%=      5-min Rain = 0
KEN1 160205Z 20010KT 12/M05 A3014 RMK A01 T01171049  RH  031%=      5-min Rain = 0
KEN1 160206Z 20010KT 12/M05 A3014 RMK A01 T01171049  RH  031%=      5-min Rain = 0
KEN1 160207Z 20009KT 12/M05 A3014 RMK A01 T01171049  RH  031%=      5-min Rain = 0
KEN1 160208Z 20009KT 12/M05 A3014 RMK A01 T01161049  RH  031%=      5-min Rain = 0
KEN1 160209Z 20009KT 12/M05 A3014 RMK A01 T01161049  RH  031%=      5-min Rain = 0
KEN1 160210Z 21009KT 12/M05 A3014 RMK A01 T01151049  RH  031%=      5-min Rain = 0
KEN1 160211Z 21009KT 12/M05 A3014 RMK A01 T01151049  RH  031%=      5-min Rain = 0
KEN1 160212Z 20009KT 12/M05 A3014 RMK A01 T01151049  RH  031%=      5-min Rain = 0
KEN1 160213Z 20010KT 12/M05 A3014 RMK A01 T01151049  RH  031%=      5-min Rain = 0
KEN1 160214Z 20010KT 12/M05 A3014 RMK A01 T01151048  RH  031%=      5-min Rain = 0
KEN1 160215Z 20010KT 12/M05 A3014 RMK A01 T01161048  RH  031%=      5-min Rain = 0
KEN1 160216Z 20010KT 12/M05 A3014 RMK A01 T01171048  RH  031%=      5-min Rain = 0
KEN1 160217Z 20010KT 12/M05 A3014 RMK A01 T01171048  RH  031%=      5-min Rain = 0
KEN1 160218Z 20010KT 12/M05 A3014 RMK A01 T01171048  RH  031%=      5-min Rain = 0
KEN1 160219Z 20010KT 12/M05 A3014 RMK A01 T01171048  RH  031%=      5-min Rain = 0
KEN1 160220Z 20009KT 12/M05 A3014 RMK A01 T01171047  RH  031%=      5-min Rain = 0
KEN1 160221Z 20009KT 12/M05 A3014 RMK A01 T01161047  RH  032%=      5-min Rain = 0
KEN1 160222Z 20009KT 12/M05 A3014 RMK A01 T01161047  RH  032%=      5-min Rain = 0
KEN1 160223Z 20009KT 12/M05 A3014 RMK A01 T01161047  RH  032%=      5-min Rain = 0
KEN1 160224Z 20009KT 12/M05 A3014 RMK A01 T01161047  RH  032%=      5-min Rain = 0
KEN1 160225Z 21009KT 12/M05 A3014 RMK A01 T01161047  RH  032%=      5-min Rain = 0
KEN1 160226Z 21009KT 12/M05 A3014 RMK A01 T01151047  RH  032%=      5-min Rain = 0
KEN1 160227Z 21008KT 12/M05 A3014 RMK A01 T01151047  RH  032%=      5-min Rain = 0
KEN1 160228Z 21008KT 11/M05 A3014 RMK A01 T01141047  RH  032%=      5-min Rain = 0
KEN1 160229Z 21010KT 11/M05 A3014 RMK A01 T01121047  RH  032%=      5-min Rain = 0
KEN1 160230Z 21010KT 11/M05 A3014 RMK A01 T01121048  RH  032%=      5-min Rain = 0
KEN1 160231Z 21010KT 11/M05 A3014 RMK A01 T01121048  RH  032%=      5-min Rain = 0
KEN1 160232Z 21009KT 11/M05 A3014 RMK A01 T01121047  RH  032%=      5-min Rain = 0
KEN1 160233Z 21009KT 11/M05 A3014 RMK A01 T01111047  RH  033%=      5-min Rain = 0
KEN1 160234Z 21008KT 11/M05 A3014 RMK A01 T01101048  RH  033%=      5-min Rain = 0
KEN1 160235Z 21009KT 11/M05 A3014 RMK A01 T01091048  RH  033%=      5-min Rain = 0
KEN1 160236Z 21009KT 11/M05 A3014 RMK A01 T01091047  RH  033%=      5-min Rain = 0
KEN1 160237Z 21009KT 11/M05 A3014 RMK A01 T01081047  RH  033%=      5-min Rain = 0
KEN1 160238Z 21008KT 11/M05 A3014 RMK A01 T01071048  RH  033%=      5-min Rain = 0
KEN1 160239Z 21008KT 11/M05 A3014 RMK A01 T01071047  RH  033%=      5-min Rain = 0
KEN1 160240Z 21008KT 11/M05 A3014 RMK A01 T01061047  RH  034%=      5-min Rain = 0
KEN1 160241Z 21008KT 11/M05 A3014 RMK A01 T01061047  RH  034%=      5-min Rain = 0
KEN1 160242Z 21008KT 11/M05 A3014 RMK A01 T01051048  RH  034%=      5-min Rain = 0
KEN1 160243Z 21008KT 11/M05 A3014 RMK A01 T01051047  RH  034%=      5-min Rain = 0
KEN1 160244Z 21008KT 11/M05 A3014 RMK A01 T01051047  RH  034%=      5-min Rain = 0
KEN1 160245Z 21007KT 10/M05 A3014 RMK A01 T01041047  RH  034%=      5-min Rain = 0
KEN1 160246Z 21007KT 10/M05 A3014 RMK A01 T01041047  RH  034%=      5-min Rain = 0
KEN1 160247Z 21007KT 10/M05 A3014 RMK A01 T01031047  RH  034%=      5-min Rain = 0
KEN1 160248Z 21007KT 10/M05 A3014 RMK A01 T01031047  RH  034%=      5-min Rain = 0
KEN1 160249Z 21008KT 10/M05 A3014 RMK A01 T01031047  RH  035%=      5-min Rain = 0
KEN1 160250Z 21009KT 11/M05 A3014 RMK A01 T01051046  RH  034%=      5-min Rain = 0
KEN1 160251Z 20009KT 11/M05 A3014 RMK A01 T01071045  RH  034%=      5-min Rain = 0
KEN1 160252Z 21009KT 11/M05 A3014 RMK A01 T01081045  RH  034%=      5-min Rain = 0
KEN1 160253Z 20009KT 11/M05 A3014 RMK A01 T01081046  RH  034%=      5-min Rain = 0
KEN1 160254Z 21007KT 11/M05 A3014 RMK A01 T01081046  RH  034%=      5-min Rain = 0
KEN1 160255Z 20008KT 11/M05 A3014 RMK A01 T01071045  RH  034%=      5-min Rain = 0
KEN1 160256Z 21009KT 11/M05 A3014 RMK A01 T01061045  RH  034%=      5-min Rain = 0
KEN1 160257Z 21008KT 11/M04 A3014 RMK A01 T01071044  RH  034%=      5-min Rain = 0
KEN1 160258Z 21008KT 11/M05 A3014 RMK A01 T01071045  RH  034%=      5-min Rain = 0
KEN1 160259Z 21007KT 11/M05 A3014 RMK A01 T01061045  RH  034%=      5-min Rain = 0
KEN1 160300Z 20007KT 11/M05 A3014 RMK A01 T01051045  RH  034%=      5-min Rain = 0
KEN1 160301Z 21007KT 11/M05 A3014 RMK A01 T01051045  RH  035%=      5-min Rain = 0
KEN1 160302Z 20007KT 11/M05 A3014 RMK A01 T01051045  RH  035%=      5-min Rain = 0
KEN1 160303Z 21008KT 10/M05 A3014 RMK A01 T01041045  RH  035%=      5-min Rain = 0
KEN1 160304Z 21007KT 11/M04 A3014 RMK A01 T01051044  RH  035%=      5-min Rain = 0
KEN1 160305Z 21007KT 10/M04 A3014 RMK A01 T01041044  RH  035%=      5-min Rain = 0
KEN1 160306Z 21007KT 10/M05 A3014 RMK A01 T01021045  RH  035%=      5-min Rain = 0
KEN1 160307Z 21008KT 10/M05 A3014 RMK A01 T01001045  RH  036%=      5-min Rain = 0
KEN1 160308Z 21007KT 10/M04 A3014 RMK A01 T01001044  RH  036%=      5-min Rain = 0
KEN1 160309Z 21007KT 10/M04 A3014 RMK A01 T01001044  RH  036%=      5-min Rain = 0
KEN1 160310Z 21007KT 10/M04 A3014 RMK A01 T01001044  RH  036%=      5-min Rain = 0
KEN1 160311Z 21007KT 10/M05 A3014 RMK A01 T00991045  RH  036%=      5-min Rain = 0
KEN1 160312Z 22007KT 10/M05 A3014 RMK A01 T00981045  RH  036%=      5-min Rain = 0
KEN1 160313Z 21007KT 10/M05 A3014 RMK A01 T00971045  RH  036%=      5-min Rain = 0
KEN1 160314Z 22007KT 10/M04 A3014 RMK A01 T00971044  RH  037%=      5-min Rain = 0
KEN1 160315Z 22006KT 10/M05 A3014 RMK A01 T00961045  RH  037%=      5-min Rain = 0
KEN1 160316Z 22006KT 10/M04 A3014 RMK A01 T00961044  RH  037%=      5-min Rain = 0
KEN1 160317Z 22007KT 10/M04 A3014 RMK A01 T00951044  RH  037%=      5-min Rain = 0
KEN1 160318Z 23007KT 10/M04 A3014 RMK A01 T00961044  RH  037%=      5-min Rain = 0
KEN1 160319Z 22007KT 10/M04 A3014 RMK A01 T00961044  RH  037%=      5-min Rain = 0
KEN1 160320Z 23007KT 10/M05 A3014 RMK A01 T00951045  RH  037%=      5-min Rain = 0
KEN1 160321Z 22007KT 09/M05 A3014 RMK A01 T00931045  RH  037%=      5-min Rain = 0
KEN1 160322Z 23007KT 09/M05 A3014 RMK A01 T00911045  RH  038%=      5-min Rain = 0
KEN1 160323Z 23007KT 09/M04 A3014 RMK A01 T00901044  RH  038%=      5-min Rain = 0
KEN1 160324Z 22007KT 09/M04 A3014 RMK A01 T00911044  RH  038%=      5-min Rain = 0
KEN1 160325Z 23008KT 09/M04 A3014 RMK A01 T00911044  RH  038%=      5-min Rain = 0
KEN1 160326Z 22008KT 09/M04 A3014 RMK A01 T00921043  RH  038%=      5-min Rain = 0
KEN1 160327Z 22008KT 09/M04 A3014 RMK A01 T00921043  RH  038%=      5-min Rain = 0
KEN1 160328Z 22008KT 09/M04 A3014 RMK A01 T00911043  RH  039%=      5-min Rain = 0
KEN1 160329Z 22008KT 09/M04 A3014 RMK A01 T00901042  RH  039%=      5-min Rain = 0
KEN1 160330Z 22008KT 09/M04 A3014 RMK A01 T00901042  RH  039%=      5-min Rain = 0
KEN1 160331Z 22008KT 09/M04 A3014 RMK A01 T00911042  RH  039%=      5-min Rain = 0
KEN1 160332Z 22009KT 09/M04 A3014 RMK A01 T00921042  RH  039%=      5-min Rain = 0
KEN1 160333Z 22009KT 09/M04 A3014 RMK A01 T00931042  RH  038%=      5-min Rain = 0
KEN1 160334Z 22009KT 09/M04 A3014 RMK A01 T00941041  RH  038%=      5-min Rain = 0
KEN1 160335Z 22009KT 10/M04 A3014 RMK A01 T00951041  RH  038%=      5-min Rain = 0
KEN1 160336Z 22009KT 09/M04 A3014 RMK A01 T00941041  RH  038%=      5-min Rain = 0
KEN1 160337Z 22008KT 09/M04 A3014 RMK A01 T00941041  RH  038%=      5-min Rain = 0
KEN1 160338Z 22008KT 09/M04 A3014 RMK A01 T00941041  RH  038%=      5-min Rain = 0
KEN1 160339Z 22008KT 09/M04 A3014 RMK A01 T00931042  RH  038%=      5-min Rain = 0
KEN1 160340Z 22008KT 09/M04 A3014 RMK A01 T00921042  RH  039%=      5-min Rain = 0
KEN1 160341Z 22008KT 09/M04 A3014 RMK A01 T00921042  RH  039%=      5-min Rain = 0
KEN1 160342Z 22008KT 09/M04 A3014 RMK A01 T00921041  RH  039%=      5-min Rain = 0
KEN1 160343Z 22008KT 09/M04 A3014 RMK A01 T00921041  RH  039%=      5-min Rain = 0
KEN1 160344Z 22008KT 09/M04 A3014 RMK A01 T00921041  RH  039%=      5-min Rain = 0
KEN1 160345Z 22009KT 09/M04 A3014 RMK A01 T00921042  RH  039%=      5-min Rain = 0
KEN1 160346Z 22009KT 09/M04 A3014 RMK A01 T00911042  RH  039%=      5-min Rain = 0
KEN1 160347Z 22009KT 09/M04 A3014 RMK A01 T00921041  RH  039%=      5-min Rain = 0
KEN1 160348Z 22008KT 09/M04 A3014 RMK A01 T00921041  RH  039%=      5-min Rain = 0
KEN1 160349Z 22008KT 09/M04 A3014 RMK A01 T00911041  RH  039%=      5-min Rain = 0
KEN1 160350Z 22008KT 09/M04 A3014 RMK A01 T00911041  RH  039%=      5-min Rain = 0
KEN1 160351Z 22008KT 09/M04 A3014 RMK A01 T00911041  RH  039%=      5-min Rain = 0
KEN1 160352Z 22008KT 09/M04 A3014 RMK A01 T00901041  RH  039%=      5-min Rain = 0
KEN1 160353Z 22009KT 09/M04 A3014 RMK A01 T00891041  RH  040%=      5-min Rain = 0
KEN1 160354Z 22009KT 09/M04 A3014 RMK A01 T00901040  RH  040%=      5-min Rain = 0
KEN1 160355Z 22009KT 09/M04 A3014 RMK A01 T00911040  RH  039%=      5-min Rain = 0
KEN1 160356Z 22009KT 09/M04 A3014 RMK A01 T00921040  RH  039%=      5-min Rain = 0
KEN1 160357Z 22009KT 09/M04 A3014 RMK A01 T00931039  RH  039%=      5-min Rain = 0
KEN1 160358Z 22009KT 09/M04 A3014 RMK A01 T00941039  RH  039%=      5-min Rain = 0
KEN1 160359Z 22009KT 09/M04 A3014 RMK A01 T00941039  RH  039%=      5-min Rain = 0
KEN1 160400Z 22009KT 10/M04 A3014 RMK A01 T00951039  RH  039%=      5-min Rain = 0
KEN1 160401Z 22009KT 10/M04 A3014 RMK A01 T00951039  RH  039%=      5-min Rain = 0
KEN1 160402Z 22008KT 09/M04 A3014 RMK A01 T00941039  RH  039%=      5-min Rain = 0
KEN1 160403Z 22009KT 09/M04 A3014 RMK A01 T00941039  RH  039%=      5-min Rain = 0
KEN1 160404Z 22009KT 09/M04 A3014 RMK A01 T00941039  RH  039%=      5-min Rain = 0
KEN1 160405Z 22008KT 09/M04 A3014 RMK A01 T00941038  RH  039%=      5-min Rain = 0
KEN1 160406Z 22008KT 10/M04 A3014 RMK A01 T00951039  RH  039%=      5-min Rain = 0
KEN1 160407Z 22008KT 09/M04 A3014 RMK A01 T00941039  RH  039%=      5-min Rain = 0
KEN1 160408Z 22008KT 09/M04 A3014 RMK A01 T00931039  RH  039%=      5-min Rain = 0
KEN1 160409Z 22008KT 09/M04 A3014 RMK A01 T00921039  RH  039%=      5-min Rain = 0
KEN1 160410Z 22008KT 09/M04 A3014 RMK A01 T00921039  RH  040%=      5-min Rain = 0
KEN1 160411Z 22008KT 09/M04 A3014 RMK A01 T00921039  RH  040%=      5-min Rain = 0
KEN1 160412Z 22008KT 09/M04 A3014 RMK A01 T00911039  RH  040%=      5-min Rain = 0
KEN1 160413Z 22007KT 09/M04 A3014 RMK A01 T00891039  RH  040%=      5-min Rain = 0
KEN1 160414Z 22007KT 09/M04 A3014 RMK A01 T00881039  RH  040%=      5-min Rain = 0
KEN1 160415Z 23008KT 09/M04 A3014 RMK A01 T00871039  RH  041%=      5-min Rain = 0
KEN1 160416Z 23007KT 09/M04 A3014 RMK A01 T00871039  RH  041%=      5-min Rain = 0
KEN1 160417Z 22007KT 09/M04 A3014 RMK A01 T00871039  RH  041%=      5-min Rain = 0
KEN1 160418Z 22007KT 09/M04 A3014 RMK A01 T00851039  RH  041%=      5-min Rain = 0
KEN1 160419Z 22007KT 09/M04 A3014 RMK A01 T00851038  RH  042%=      5-min Rain = 0
KEN1 160420Z 23007KT 09/M04 A3014 RMK A01 T00851038  RH  042%=      5-min Rain = 0
KEN1 160421Z 23008KT 09/M04 A3014 RMK A01 T00851038  RH  042%=      5-min Rain = 0
KEN1 160422Z 23008KT 09/M04 A3014 RMK A01 T00851038  RH  042%=      5-min Rain = 0
KEN1 160423Z 23007KT 09/M04 A3014 RMK A01 T00851037  RH  042%=      5-min Rain = 0
KEN1 160424Z 22008KT 08/M04 A3014 RMK A01 T00841038  RH  042%=      5-min Rain = 0
KEN1 160425Z 23008KT 08/M04 A3014 RMK A01 T00841037  RH  042%=      5-min Rain = 0
KEN1 160426Z 22007KT 08/M04 A3014 RMK A01 T00841037  RH  042%=      5-min Rain = 0
KEN1 160427Z 22007KT 08/M04 A3014 RMK A01 T00841037  RH  042%=      5-min Rain = 0
KEN1 160428Z 22007KT 08/M04 A3014 RMK A01 T00831037  RH  042%=      5-min Rain = 0
KEN1 160429Z 23008KT 08/M04 A3014 RMK A01 T00831037  RH  042%=      5-min Rain = 0
KEN1 160430Z 22007KT 08/M04 A3014 RMK A01 T00841037  RH  042%=      5-min Rain = 0
KEN1 160431Z 22007KT 08/M04 A3014 RMK A01 T00841037  RH  042%=      5-min Rain = 0
KEN1 160432Z 22007KT 08/M04 A3014 RMK A01 T00841037  RH  042%=      5-min Rain = 0
KEN1 160433Z 23007KT 09/M04 A3014 RMK A01 T00851037  RH  042%=      5-min Rain = 0
KEN1 160434Z 23008KT 09/M04 A3014 RMK A01 T00851037  RH  042%=      5-min Rain = 0
KEN1 160435Z 23008KT 09/M04 A3014 RMK A01 T00861037  RH  042%=      5-min Rain = 0
KEN1 160436Z 23008KT 09/M04 A3014 RMK A01 T00861036  RH  042%=      5-min Rain = 0
KEN1 160437Z 23008KT 09/M04 A3014 RMK A01 T00871036  RH  042%=      5-min Rain = 0
KEN1 160438Z 23008KT 09/M04 A3014 RMK A01 T00871037  RH  042%=      5-min Rain = 0
KEN1 160439Z 23008KT 09/M04 A3014 RMK A01 T00871036  RH  042%=      5-min Rain = 0
KEN1 160440Z 23008KT 09/M04 A3014 RMK A01 T00861036  RH  042%=      5-min Rain = 0
KEN1 160441Z 23008KT 09/M04 A3014 RMK A01 T00861036  RH  042%=      5-min Rain = 0
KEN1 160442Z 23009KT 09/M04 A3014 RMK A01 T00851036  RH  042%=      5-min Rain = 0
KEN1 160443Z 22009KT 09/M04 A3014 RMK A01 T00861036  RH  042%=      5-min Rain = 0
KEN1 160444Z 22009KT 09/M04 A3014 RMK A01 T00871036  RH  042%=      5-min Rain = 0
KEN1 160445Z 23008KT 09/M04 A3014 RMK A01 T00871036  RH  042%=      5-min Rain = 0
KEN1 160446Z 22008KT 09/M04 A3014 RMK A01 T00871036  RH  042%=      5-min Rain = 0
KEN1 160447Z 22008KT 09/M04 A3014 RMK A01 T00871036  RH  042%=      5-min Rain = 0
KEN1 160448Z 22009KT 09/M04 A3014 RMK A01 T00861036  RH  042%=      5-min Rain = 0
KEN1 160449Z 22009KT 09/M04 A3014 RMK A01 T00861036  RH  042%=      5-min Rain = 0
KEN1 160450Z 22008KT 09/M04 A3014 RMK A01 T00861036  RH  042%=      5-min Rain = 0
KEN1 160451Z 22008KT 09/M04 A3014 RMK A01 T00861035  RH  042%=      5-min Rain = 0
KEN1 160452Z 22009KT 09/M04 A3014 RMK A01 T00861036  RH  042%=      5-min Rain = 0
KEN1 160453Z 22008KT 09/M04 A3014 RMK A01 T00871035  RH  042%=      5-min Rain = 0
KEN1 160454Z 22009KT 09/M04 A3014 RMK A01 T00881035  RH  042%=      5-min Rain = 0
KEN1 160455Z 22009KT 09/M04 A3014 RMK A01 T00881035  RH  042%=      5-min Rain = 0
KEN1 160456Z 22009KT 09/M04 A3014 RMK A01 T00881035  RH  042%=      5-min Rain = 0
KEN1 160457Z 22009KT 09/M04 A3014 RMK A01 T00891035  RH  042%=      5-min Rain = 0
KEN1 160458Z 23008KT 09/M04 A3014 RMK A01 T00881035  RH  042%=      5-min Rain = 0
KEN1 160459Z 23008KT 09/M04 A3014 RMK A01 T00881036  RH  042%=      5-min Rain = 0
KEN1 160500Z 22008KT 09/M04 A3014 RMK A01 T00871036  RH  042%=      5-min Rain = 0
KEN1 160501Z 22010KT 09/M04 A3014 RMK A01 T00871036  RH  042%=      5-min Rain = 0
KEN1 160502Z 22009KT 09/M04 A3013 RMK A01 T00881035  RH  042%=      5-min Rain = 0
KEN1 160503Z 22010KT 09/M04 A3013 RMK A01 T00891035  RH  042%=      5-min Rain = 0
KEN1 160504Z 22009KT 09/M04 A3013 RMK A01 T00891035  RH  041%=      5-min Rain = 0
KEN1 160505Z 22010KT 09/M04 A3013 RMK A01 T00891035  RH  041%=      5-min Rain = 0
KEN1 160506Z 22009KT 09/M04 A3013 RMK A01 T00901035  RH  041%=      5-min Rain = 0
KEN1 160507Z 22010KT 09/M04 A3013 RMK A01 T00901035  RH  041%=      5-min Rain = 0
KEN1 160508Z 22010KT 09/M04 A3013 RMK A01 T00901035  RH  041%=      5-min Rain = 0
KEN1 160509Z 22010KT 09/M04 A3013 RMK A01 T00911035  RH  041%=      5-min Rain = 0
KEN1 160510Z 22010KT 09/M04 A3013 RMK A01 T00911035  RH  041%=      5-min Rain = 0
KEN1 160511Z 22009KT 09/M04 A3013 RMK A01 T00911035  RH  041%=      5-min Rain = 0
KEN1 160512Z 22009KT 09/M04 A3013 RMK A01 T00901036  RH  041%=      5-min Rain = 0
KEN1 160513Z 22009KT 09/M04 A3013 RMK A01 T00891035  RH  041%=      5-min Rain = 0
KEN1 160514Z 22009KT 09/M04 A3013 RMK A01 T00881036  RH  041%=      5-min Rain = 0
KEN1 160515Z 21009KT 09/M04 A3013 RMK A01 T00881035  RH  041%=      5-min Rain = 0
KEN1 160516Z 22008KT 09/M04 A3013 RMK A01 T00891035  RH  041%=      5-min Rain = 0
KEN1 160517Z 22009KT 09/M04 A3013 RMK A01 T00881036  RH  041%=      5-min Rain = 0
KEN1 160518Z 22008KT 09/M04 A3013 RMK A01 T00871036  RH  042%=      5-min Rain = 0
KEN1 160519Z 22008KT 09/M04 A3013 RMK A01 T00861036  RH  042%=      5-min Rain = 0
KEN1 160520Z 21008KT 08/M04 A3013 RMK A01 T00841036  RH  042%=      5-min Rain = 0
KEN1 160521Z 22009KT 08/M04 A3013 RMK A01 T00841036  RH  043%=      5-min Rain = 0
KEN1 160522Z 22008KT 08/M04 A3013 RMK A01 T00841036  RH  043%=      5-min Rain = 0
KEN1 160523Z 22008KT 08/M04 A3013 RMK A01 T00831036  RH  043%=      5-min Rain = 0
KEN1 160524Z 22008KT 08/M04 A3013 RMK A01 T00841035  RH  043%=      5-min Rain = 0
KEN1 160525Z 22008KT 08/M04 A3013 RMK A01 T00841036  RH  043%=      5-min Rain = 0
KEN1 160526Z 21007KT 08/M04 A3013 RMK A01 T00841035  RH  043%=      5-min Rain = 0
KEN1 160527Z 21008KT 08/M04 A3013 RMK A01 T00831035  RH  043%=      5-min Rain = 0
KEN1 160528Z 21007KT 08/M04 A3013 RMK A01 T00821036  RH  043%=      5-min Rain = 0
KEN1 160529Z 21007KT 08/M04 A3013 RMK A01 T00811035  RH  044%=      5-min Rain = 0
KEN1 160530Z 21007KT 08/M04 A3013 RMK A01 T00801035  RH  044%=      5-min Rain = 0
KEN1 160531Z 21008KT 08/M04 A3013 RMK A01 T00811035  RH  044%=      5-min Rain = 0
KEN1 160532Z 21008KT 08/M04 A3013 RMK A01 T00821035  RH  044%=      5-min Rain = 0
KEN1 160533Z 21008KT 08/M03 A3013 RMK A01 T00831034  RH  043%=      5-min Rain = 0
KEN1 160534Z 21010KT 08/M04 A3013 RMK A01 T00821035  RH  044%=      5-min Rain = 0
KEN1 160535Z 21007KT 08/M03 A3013 RMK A01 T00831033  RH  044%=      5-min Rain = 0
KEN1 160536Z 21008KT 08/M03 A3013 RMK A01 T00841034  RH  043%=      5-min Rain = 0
KEN1 160537Z 21008KT 08/M04 A3013 RMK A01 T00831035  RH  043%=      5-min Rain = 0
KEN1 160538Z 21008KT 08/M03 A3013 RMK A01 T00821034  RH  044%=      5-min Rain = 0
KEN1 160539Z 21009KT 08/M04 A3013 RMK A01 T00811035  RH  044%=      5-min Rain = 0
KEN1 160540Z 21007KT 08/M03 A3013 RMK A01 T00811034  RH  044%=      5-min Rain = 0
KEN1 160541Z 20007KT 08/M03 A3013 RMK A01 T00811034  RH  044%=      5-min Rain = 0
KEN1 160542Z 20007KT 08/M03 A3012 RMK A01 T00811034  RH  044%=      5-min Rain = 0
KEN1 160543Z 20008KT 08/M03 A3012 RMK A01 T00801034  RH  044%=      5-min Rain = 0
KEN1 160544Z 20008KT 08/M03 A3012 RMK A01 T00811033  RH  044%=      5-min Rain = 0
KEN1 160545Z 21008KT 08/M03 A3013 RMK A01 T00811033  RH  044%=      5-min Rain = 0
KEN1 160546Z 21008KT 08/M03 A3012 RMK A01 T00811033  RH  045%=      5-min Rain = 0
KEN1 160547Z 21008KT 08/M03 A3012 RMK A01 T00801033  RH  045%=      5-min Rain = 0
KEN1 160548Z 21009KT 08/M03 A3012 RMK A01 T00791033  RH  045%=      5-min Rain = 0
KEN1 160549Z 21009KT 08/M03 A3012 RMK A01 T00791032  RH  045%=      5-min Rain = 0
KEN1 160550Z 21009KT 08/M03 A3012 RMK A01 T00791032  RH  045%=      5-min Rain = 0
KEN1 160551Z 21009KT 08/M03 A3012 RMK A01 T00791031  RH  045%=      5-min Rain = 0
KEN1 160552Z 20010KT 08/M03 A3012 RMK A01 T00801031  RH  045%=      5-min Rain = 0
KEN1 160553Z 21009KT 08/M03 A3012 RMK A01 T00811030  RH  045%=      5-min Rain = 0
KEN1 160554Z 21010KT 08/M03 A3012 RMK A01 T00821030  RH  045%=      5-min Rain = 0
KEN1 160555Z 20011KT 08/M03 A3012 RMK A01 T00831029  RH  045%=      5-min Rain = 0
KEN1 160556Z 20010KT 08/M03 A3012 RMK A01 T00841028  RH  045%=      5-min Rain = 0
KEN1 160557Z 20010KT 09/M03 A3012 RMK A01 T00851029  RH  045%=      5-min Rain = 0
KEN1 160558Z 20010KT 08/M03 A3012 RMK A01 T00831029  RH  045%=      5-min Rain = 0
KEN1 160559Z 20010KT 08/M03 A3012 RMK A01 T00821029  RH  045%=      5-min Rain = 0

Page generated in 0.0872 seconds.